                ,  0.671,  0.819,  0.966,  1.114,  1.262,  1.410,  1.558,  1.705,  1.853,  2.001,  2.149,  2.297,  2.445,  2.592,  2.740,  2.888,  3.036,  3.184,  3.331,  3.479,  3.627,  3.775,  3.923,  4.070,  4.218,  4.366,  4.514,  4.662,  4.809,  4.957,  5.105,  5.253,  5.401,  5.549,  5.696,  5.844,  5.992,  6.140,  6.288,  6.435,  6.583,  6.731,  6.879,  7.027,  7.174,  7.322,  7.470,  7.618,  7.766,  7.914,  8.061,  8.209,  8.357,  8.505,  8.653,  8.800,  8.948,  9.096,  9.244,  9.392,  9.539,  9.687,  9.835
2005/10/17 00:00,  999.0,   -1.7,   -4.5,   -1.7,   -4.8,   -4.4,  999.0,    0.4,    3.1,    3.0,    3.5,    3.3,  999.0,    5.4,  999.0,    6.6,    6.3,    7.2,    7.9,  999.0,  999.0,  999.0,  999.0,    7.2,   12.3,  999.0,  999.0,  999.0,  999.0,  999.0,   54.9,   55.1,   55.1,   55.1,   55.1,   55.1,   55.1,   55.2,   55.2,   55.2,   55.1,   55.2,   55.1,   55.1,   55.2,   55.0,   55.3,   55.2,   55.2,   55.2,  999.0,  999.0,   55.7,  999.0,   55.2,  999.0,  999.0,  999.0,  999.0,  999.0,  999.0,  999.0,  999.0
2005/10/17 00:10,  999.0,   -2.6,   -4.9,   -5.7,   -5.0,   -3.2,    0.6,    0.6,    1.3,    2.7,    2.7,  999.0,  999.0,  999.0,    6.6,    6.1,    6.0,    7.5,    7.7,  999.0,    9.5,   10.5,  999.0,  999.0,  999.0,  999.0,  999.0,  999.0,  999.0,  999.0,  999.0,  -13.7,    0.1,    0.0,   48.2,   48.2,   48.2,   48.2,   48.3,   46.1,   46.0,   46.1,   46.0,   46.0,   46.0,   55.4,   55.3,   27.8,   27.8,   37.2,   33.2,   41.5,   36.9,    9.3,  999.0,  999.0,  999.0,    0.3,  999.0,  999.0,  999.0,  999.0,  999.0
2005/10/17 00:20,  999.0,   -3.2,   -4.4,   -5.5,  999.0,   -2.7,   -1.6,    0.3,  999.0,  999.0,    3.0,    2.7,    3.6,    5.8,    6.4,    5.9,    6.5,    8.1,    8.6,  999.0,  999.0,    9.8,   10.9,  999.0,  999.0,  999.0,  999.0,  999.0,  999.0,  999.0,  999.0,   55.1,   55.1,   55.1,   55.1,   55.1,   55.1,   55.1,   55.1,   55.1,   55.1,   55.2,   55.2,   55.3,   55.3,   55.3,   55.3,   55.5,   55.2,   55.4,  999.0,   55.5,  999.0,  999.0,  999.0,  999.0,  999.0,  999.0,  999.0,  999.0,  999.0,  999.0,  999.0
2005/10/17 00:30,  999.0,   -2.4,   -3.9,   -4.9,   -4.4,   -3.0,   -1.3,   -1.0,    1.2,    2.0,    2.8,    2.7,    1.5,    6.2,  999.0,    5.3,    6.4,    7.5,  999.0,  999.0,  999.0,  999.0,  999.0,  999.0,  999.0,  999.0,  999.0,  999.0,   55.0,   55.0,   55.1,   55.0,   55.1,   55.1,   55.0,   55.0,   55.1,   55.1,   55.1,   55.1,   55.1,   55.2,   55.1,   55.1,   55.1,   55.2,   55.3,   55.0,   55.2,   55.1,   55.2,   55.2,   55.5,  999.0,  999.0,   55.2,  999.0,  999.0,  999.0,  999.0,  999.0,  999.0,  999.0
2005/10/17 00:40,  999.0,   -3.1,   -3.9,  999.0,   -5.1,   -5.6,   -1.9,   -0.6,  999.0,    2.4,    2.7,    2.9,    4.4,    5.4,    3.6,    6.2,    6.5,    7.4,    8.0,  999.0,  999.0,  999.0,  999.0,  999.0,  999.0,  999.0,  999.0,  999.0,  999.0,  999.0,  999.0,  999.0,   55.0,   55.0,   55.0,   55.0,   55.1,   55.1,   55.1,   55.1,   55.1,   55.1,   55.2,   55.3,   55.3,   55.3,   55.3,   55.1,   55.1,   55.2,   55.4,   55.2,   55.1,  999.0,  999.0,  999.0,  999.0,  999.0,  999.0,  999.0,  999.0,  999.0,  999.0
2005/10/17 00:50,  999.0,   -3.2,   -4.4,   -5.1,   -5.4,   -4.9,   -2.7,   -2.7,  999.0,    1.8,    2.6,    2.6,    4.5,  999.0,    6.5,    6.3,    6.2,    6.9,    8.3,  999.0,  999.0,  999.0,  999.0,  999.0,  999.0,  999.0,  999.0,  999.0,   55.0,  999.0,   27.7,   55.1,   36.7,   55.1,   41.3,   41.2,   55.1,   36.7,   55.2,   55.2,   55.2,   41.4,   55.2,   55.1,   41.4,   27.6,   55.2,   36.8,  999.0,  999.0,   27.4,   28.2,  999.0,  999.0,  999.0,  999.0,  999.0,  999.0,  999.0,  999.0,  999.0,  999.0,  999.0
2005/10/17 01:00,  999.0,   -1.9,   -4.3,   -4.8,   -5.4,  999.0,   -2.4,   -2.0,   -1.4,  999.0,  999.0,  999.0,    4.2,    3.6,    3.3,  999.0,    5.7,    7.1,    8.1,    9.2,  999.0,  999.0,  999.0,  999.0,  999.0,  999.0,  999.0,  999.0,  999.0,   55.0,  999.0,   55.1,   55.1,   55.1,   55.1,   55.2,   55.1,   55.1,   55.1,   55.1,   55.1,   55.2,   55.1,   55.1,   55.0,   55.2,   55.1,   55.3,  999.0,   55.4,   55.2,   55.0,   55.2,   55.4,  999.0,  999.0,  999.0,  999.0,  999.0,  999.0,  999.0,  999.0,  999.0
2005/10/17 01:10,  999.0,   -2.1,   -3.7,   -4.9,   -5.2,   -4.4,   -3.2,   -1.5,   -1.2,   -0.7,    1.7,    3.2,    4.7,    4.1,  999.0,  999.0,  999.0,    7.0,    8.5,    9.0,  999.0,  999.0,  999.0,  999.0,  999.0,  999.0,  999.0,  999.0,  999.0,  999.0,   55.0,   55.0,   55.0,   55.0,   55.0,   55.1,   55.1,   55.1,   55.1,   55.1,   55.1,   55.2,   55.1,   55.1,   55.1,   55.2,   55.2,   55.2,   55.4,   55.3,   55.2,   55.7,   55.0,  999.0,   55.6,  999.0,  999.0,  999.0,  999.0,  999.0,  999.0,  999.0,  999.0
2005/10/17 01:20,  999.0,   -2.5,   -4.5,  999.0,   -4.4,   -3.6,  999.0,   -2.3,   -0.9,    0.9,    2.7,    4.4,    5.1,    8.0,    7.4,    7.3,    7.4,    7.8,    9.0,   10.3,  999.0,  999.0,  999.0,  999.0,  999.0,  999.0,  999.0,  999.0,  999.0,   54.9,   55.0,   55.1,   55.0,   55.1,   55.1,   55.1,   55.0,   55.1,   55.1,   55.1,   55.2,   55.2,   55.2,   55.3,   55.3,   55.3,   55.3,   55.3,   55.3,   55.5,   55.5,   55.5,   55.3,  999.0,   55.9,  999.0,  999.0,  999.0,  999.0,  999.0,  999.0,  999.0,  999.0
2005/10/17 01:30,  999.0,   -1.9,   -5.3,  999.0,  999.0,   -6.3,   -4.0,   -3.1,   -1.1,   -1.3,  999.0,    1.7,    4.2,  999.0,    7.0,    6.2,    6.5,  999.0,    9.3,  999.0,  999.0,  999.0,  999.0,  999.0,  999.0,  999.0,  999.0,   55.0,   55.0,   55.1,   55.2,   55.1,   55.1,   55.1,   55.2,   55.2,   55.2,   55.2,   55.2,   55.2,   55.2,   55.2,   55.3,   55.2,   55.3,   55.3,   55.4,  999.0,   55.3,  999.0,  999.0,  999.0,  999.0,  999.0,  999.0,  999.0,  999.0,  999.0,  999.0,  999.0,  999.0,  999.0,  999.0
2005/10/17 01:40,  999.0,   -3.2,   -5.3,   -6.8,   -6.5,   -5.2,   -5.0,   -2.4,    0.1,    1.4,    2.3,    4.1,    6.6,    7.8,    7.2,    7.2,  999.0,  999.0,    9.9,  999.0,  999.0,  999.0,  999.0,   55.0,   55.0,   55.0,   55.0,   55.0,   55.0,   55.1,   55.1,   55.1,   55.1,   55.1,   55.1,   55.1,   55.1,   55.1,   55.1,   55.1,   55.0,   55.2,   55.2,   55.2,   55.3,   55.2,   55.3,   55.2,   55.2,   55.2,   55.2,   55.3,   55.5,  999.0,  999.0,  999.0,  999.0,  999.0,  999.0,  999.0,  999.0,  999.0,  999.0
2005/10/17 01:50,  999.0,   -3.2,   -6.1,   -6.5,   -6.1,   -5.6,   -4.3,   -2.5,    0.2,  999.0,    5.3,    6.8,    6.8,    8.4,    8.6,    7.6,    8.3,  999.0,  999.0,  999.0,  999.0,  999.0,  999.0,  999.0,  999.0,  999.0,  999.0,  999.0,  999.0,   27.5,  999.0,   27.5,   27.5,  999.0,   27.5,   27.4,   27.6,   27.5,   27.5,  999.0,  999.0,   27.5,   27.6,  999.0,   27.6,   27.7,  999.0,  999.0,   27.7,  999.0,  999.0,   27.8,  999.0,  999.0,  999.0,  999.0,  999.0,  999.0,  999.0,  999.0,  999.0,  999.0,  999.0
2005/10/17 02:00,  999.0,   -2.0,   -3.2,   -6.9,   -5.9,   -4.7,   -3.4,   -2.4,   -1.5,    0.6,    2.9,    5.2,    6.9,    8.2,    8.3,    8.0,    9.4,  999.0,  999.0,  999.0,  999.0,  999.0,  999.0,  999.0,  999.0,  999.0,  999.0,   55.1,   55.1,   55.1,   55.1,   55.1,   55.1,   55.0,   55.1,   55.1,   55.1,   55.1,   55.1,   55.2,   55.2,   55.2,   55.2,   55.2,   55.2,   55.2,   55.3,   55.3,   54.9,   55.3,   55.2,   55.3,  999.0,  999.0,  999.0,  999.0,  999.0,  999.0,  999.0,  999.0,  999.0,  999.0,  999.0
2005/10/17 02:10,  999.0,  999.0,   -7.3,   -9.8,   -7.5,   -6.7,   -2.7,   -2.1,   -0.8,    1.6,    4.1,    4.9,    7.0,    8.0,    7.9,  999.0,  999.0,  999.0,  999.0,  999.0,  999.0,  999.0,  999.0,  999.0,  999.0,  999.0,  999.0,  999.0,  999.0,  999.0,  999.0,   41.3,   41.3,   48.1,   48.2,   48.2,   45.9,   48.2,   55.1,   55.1,   55.1,   55.0,   55.1,   55.2,   48.2,   48.3,   45.9,   48.2,   55.3,   55.6,   55.3,   55.2,   55.4,  999.0,  999.0,  999.0,  999.0,  999.0,  999.0,  999.0,  999.0,  999.0,  999.0
2005/10/17 02:20,  999.0,  999.0,   -6.2,   -9.3,   -7.6,   -5.5,   -3.1,   -1.6,    0.6,    0.8,    4.3,    4.3,    6.4,    7.0,    7.4,    7.5,  999.0,  999.0,  999.0,  999.0,  999.0,  999.0,  999.0,  999.0,  999.0,  999.0,  999.0,  999.0,  999.0,  999.0,  999.0,   55.1,   55.1,   55.1,   55.1,   55.1,   55.2,   55.1,   55.2,   55.2,   55.2,   55.2,   55.2,   55.3,   55.2,   55.2,   55.1,   55.2,   55.4,   55.4,   55.3,   55.2,  999.0,  999.0,   55.5,   55.5,   55.8,  999.0,  999.0,  999.0,  999.0,  999.0,  999.0
2005/10/17 02:30,  999.0,  999.0,   -6.6,   -8.8,   -8.5,   -5.8,   -2.6,   -0.7,    1.0,    3.4,    4.9,    6.5,    8.3,    8.8,    8.3,  999.0,  999.0,  999.0,  999.0,  999.0,  999.0,  999.0,  999.0,  999.0,   25.7,   28.8,  999.0,   30.4,   18.9,  999.0,  999.0,   55.1,   55.0,   55.1,   55.2,   55.1,   55.1,   55.2,   55.2,   55.1,   55.1,   55.1,   55.2,   55.1,   55.4,   48.4,   55.2,   41.6,   48.5,   55.2,   46.2,  999.0,   55.3,  999.0,  999.0,  999.0,  999.0,  999.0,  999.0,  999.0,  999.0,  999.0,  999.0
2005/10/17 02:40,  999.0,  999.0,   -3.4,   -9.3,  999.0,   -5.4,   -3.4,   -1.1,    0.6,    2.7,    3.7,    5.3,    7.7,    8.3,    8.0,  999.0,  999.0,  999.0,  999.0,  999.0,  999.0,  999.0,  999.0,  999.0,  999.0,  999.0,  999.0,   39.4,   41.3,   41.3,   41.3,   55.0,   55.1,   55.1,   55.1,   55.1,   55.1,   55.1,   55.1,   55.1,   55.1,   55.4,   55.1,   55.2,   55.1,   44.1,   41.5,   44.2,   41.4,   55.3,   55.2,   55.4,   55.3,  999.0,  999.0,   55.3,   55.7,  999.0,  999.0,  999.0,   55.4,  999.0,  999.0
2005/10/17 02:50,  999.0,  999.0,   -6.2,   -7.7,   -9.2,   -7.0,   -4.6,   -2.2,   -0.0,    2.8,    4.3,    5.7,    7.8,    8.3,    7.8,  999.0,  999.0,  999.0,  999.0,  999.0,  999.0,  999.0,  999.0,  999.0,  999.0,  999.0,  999.0,   55.1,   36.7,   55.1,   55.1,   55.0,   55.1,   55.1,   55.0,   55.1,   55.1,   55.1,   49.7,   49.6,   49.6,   48.2,   55.2,   49.7,   55.2,   55.2,   55.2,   55.2,   55.2,   55.3,   55.5,   55.2,   55.4,   55.2,  999.0,  999.0,  999.0,  999.0,  999.0,  999.0,  999.0,  999.0,  999.0
2005/10/17 03:00,  999.0,   -4.1,  999.0,   -8.5,   -8.3,   -5.5,   -4.6,   -1.8,   -0.6,    0.9,    3.7,    5.7,    8.1,    8.2,    8.2,  999.0,  999.0,  999.0,  999.0,  999.0,   12.3,  999.0,  999.0,   13.0,   13.9,  999.0,  999.0,  999.0,  999.0,  999.0,  999.0,  999.0,  999.0,   55.1,   55.1,   55.3,   55.1,   55.2,   55.3,   55.2,   55.2,   55.2,   55.1,   55.1,   55.2,  999.0,   55.2,   55.2,   54.8,  999.0,   55.3,  999.0,   55.2,  999.0,   55.2,  999.0,  999.0,  999.0,  999.0,  999.0,  999.0,  999.0,  999.0
2005/10/17 03:10,  999.0,  999.0,   -4.5,   -7.7,   -7.4,   -5.7,   -3.2,   -1.3,   -0.6,    0.9,    4.0,    6.2,    8.3,  999.0,  999.0,  999.0,  999.0,  999.0,  999.0,  999.0,   11.5,  999.0,   12.7,   13.3,   14.7,   15.3,   16.1,   16.6,  999.0,  999.0,  999.0,  999.0,  999.0,  999.0,  999.0,  999.0,   55.0,   55.1,   55.1,   55.2,   55.2,   55.2,   55.1,   55.3,   55.2,   55.3,   55.3,   55.3,   55.3,   55.3,   55.3,   55.4,   55.0,  999.0,  999.0,  999.0,  999.0,  999.0,  999.0,  999.0,  999.0,  999.0,  999.0
2005/10/17 03:20,  999.0,   -4.0,  999.0,   -8.6,   -6.1,   -6.2,   -4.4,   -2.2,   -0.9,    2.3,    3.9,    5.1,    7.5,    8.5,  999.0,  999.0,  999.0,  999.0,  999.0,   12.4,   11.7,   12.1,   12.3,   13.8,   14.1,   14.7,   15.4,   16.3,  999.0,  999.0,  999.0,  999.0,  999.0,  999.0,  999.0,  999.0,  999.0,   55.1,   55.1,   55.0,   55.1,   55.1,   55.1,   55.2,   55.2,   55.3,   55.2,   55.2,   55.4,   55.0,   55.4,   55.3,  999.0,   55.7,   55.5,  999.0,  999.0,  999.0,  999.0,  999.0,  999.0,  999.0,  999.0
2005/10/17 03:30,  999.0,  999.0,   -4.1,   -7.1,   -6.8,   -4.8,   -2.9,   -1.0,   -0.2,    0.6,    3.8,    5.5,    7.8,    8.0,    8.1,  999.0,  999.0,   11.6,   12.1,   11.0,   11.4,   11.5,   12.4,  999.0,   14.1,   14.2,   14.8,   16.0,  999.0,  999.0,  999.0,  999.0,  999.0,  999.0,  999.0,  999.0,  999.0,   55.1,   55.1,   55.0,   55.2,   55.2,   55.1,   55.2,   55.2,   55.3,   55.3,   55.2,   55.3,   55.1,   55.5,   55.4,   55.5,  999.0,  999.0,  999.0,  999.0,  999.0,  999.0,  999.0,  999.0,  999.0,  999.0
2005/10/17 03:40,  999.0,   -2.0,   -3.9,   -7.7,   -7.4,   -5.6,   -2.8,   -1.2,   -0.2,   -0.2,    1.8,    5.3,    7.4,    7.7,    8.8,  999.0,  999.0,  999.0,  999.0,  999.0,  999.0,  999.0,   12.5,   13.8,   14.1,   14.1,   15.0,  999.0,  999.0,  999.0,  999.0,  999.0,  999.0,  999.0,  999.0,  999.0,   55.1,   55.1,   55.1,   55.1,   55.1,   55.2,   55.1,   55.3,   55.2,   55.3,   55.1,   55.3,   55.3,   55.3,   55.3,   55.6,   55.4,  999.0,  999.0,  999.0,  999.0,  999.0,  999.0,  999.0,  999.0,  999.0,  999.0
2005/10/17 03:50,  999.0,   -2.3,   -4.8,   -5.7,   -8.5,   -5.9,   -1.9,   -1.0,   -0.3,    2.1,    1.8,    2.8,    4.0,    5.4,    8.2,  999.0,  999.0,  999.0,  999.0,  999.0,   10.8,   12.0,   13.6,   13.8,   14.3,   14.4,   15.0,   15.9,  999.0,  999.0,  999.0,  999.0,  999.0,   55.0,   55.1,   55.0,   55.1,   55.1,   55.1,   55.1,   55.2,   55.2,   55.2,   55.3,   55.1,   55.2,   55.2,   55.2,   55.4,   55.3,   55.2,   55.4,   55.0,   55.3,   55.6,  999.0,  999.0,   55.6,  999.0,  999.0,  999.0,  999.0,  999.0
2005/10/17 04:00,  999.0,   -0.9,   -3.5,   -5.0,   -7.7,  999.0,   -1.2,   -1.5,   -0.2,    0.4,    1.1,    3.1,    3.4,  999.0,    7.7,  999.0,   10.0,  999.0,   11.0,  999.0,  999.0,  999.0,  999.0,  999.0,  999.0,  999.0,  999.0,  999.0,  999.0,  999.0,  999.0,  999.0,  999.0,   55.1,   55.1,   55.1,   55.2,   55.1,   55.2,   55.2,   55.2,   55.2,   55.2,   55.2,   55.2,   55.4,   55.3,   55.3,   55.4,   55.2,   55.6,   55.4,  999.0,   55.7,  999.0,  999.0,  999.0,  999.0,  999.0,  999.0,  999.0,  999.0,  999.0
2005/10/17 04:10,  999.0,   -3.1,   -3.1,   -4.7,  999.0,   -3.2,   -1.9,    0.2,    1.9,    2.6,    2.7,    4.3,    4.3,    5.2,    7.4,    9.1,   11.0,  999.0,   11.6,   12.0,   12.5,   11.9,   12.0,   13.5,   14.1,   13.8,   14.6,  999.0,  999.0,  999.0,  999.0,  999.0,  999.0,   55.0,   55.0,   55.2,   55.1,   55.1,   55.1,   55.2,   55.1,   55.2,   55.1,   55.1,   55.1,   55.0,   55.2,   55.3,   55.1,   55.3,   55.5,   55.1,  999.0,  999.0,  999.0,  999.0,  999.0,  999.0,  999.0,  999.0,  999.0,  999.0,  999.0
2005/10/17 04:20,  999.0,  999.0,   -3.8,   -9.4,   -7.6,   -4.9,   -2.0,    1.6,    1.7,    3.2,    4.5,    4.5,  999.0,  999.0,   10.7,  999.0,  999.0,  999.0,   13.1,   12.8,   13.2,   12.6,   13.3,   14.7,   14.5,   14.1,   14.1,   15.2,  999.0,  999.0,  999.0,  999.0,  999.0,  999.0,   55.2,   55.1,   55.1,   55.1,   55.1,   55.1,   55.0,   55.1,   55.1,   55.1,   55.1,   55.1,   55.2,   55.1,   55.2,   55.3,   55.2,   55.0,   55.2,  999.0,  999.0,  999.0,  999.0,  999.0,  999.0,  999.0,  999.0,  999.0,  999.0
2005/10/17 04:30,  999.0,  999.0,  999.0,   -5.5,   -1.5,   -3.7,   -1.5,   -0.6,    1.1,    3.8,    3.7,    4.7,    8.1,   10.7,    9.4,   10.7,   12.5,  999.0,   13.0,   13.1,   12.7,   12.3,   11.3,   13.0,   13.7,   13.0,   13.8,   14.8,  999.0,  999.0,  999.0,  999.0,  999.0,  999.0,  999.0,   55.1,   55.1,   55.1,   55.1,   55.1,   55.2,   55.2,   55.2,   55.3,   55.3,   55.2,   55.2,   55.3,   55.4,   55.2,   56.2,   55.8,   55.7,  999.0,  999.0,  999.0,  999.0,  999.0,  999.0,  999.0,  999.0,  999.0,  999.0
2005/10/17 04:40,  999.0,   -2.3,   -2.9,   -5.0,   -3.2,  999.0,    0.1,    0.0,    1.4,    2.8,    2.3,    2.9,  999.0,  999.0,    8.9,  999.0,  999.0,  999.0,   12.9,   13.2,   13.3,   12.4,   12.5,   12.7,   13.6,   12.8,   13.1,   14.4,  999.0,  999.0,  999.0,  999.0,  999.0,  999.0,  999.0,  999.0,  999.0,   55.1,   55.1,   55.1,   55.2,   55.1,   55.2,   55.1,   55.3,   55.2,   55.1,   55.0,   55.5,   55.3,   55.3,  999.0,   54.9,   55.3,  999.0,  999.0,  999.0,  999.0,  999.0,  999.0,  999.0,  999.0,  999.0
2005/10/17 04:50,  999.0,   -2.9,   -3.9,   -6.1,  999.0,   -4.7,   -3.0,   -0.5,    1.1,    2.4,    2.6,    3.5,    4.9,    7.1,    7.7,  999.0,  999.0,   12.7,   13.5,   13.7,   13.6,   11.6,   11.2,   11.9,  999.0,   12.9,   13.4,   14.0,  999.0,  999.0,  999.0,  999.0,   34.8,  999.0,  999.0,  999.0,  999.0,   55.1,  999.0,   55.2,   55.1,   55.1,   55.2,   55.1,   55.2,   55.2,   55.1,   55.1,   55.4,   55.3,   55.4,  999.0,  999.0,   55.5,  999.0,  999.0,  999.0,  999.0,  999.0,  999.0,  999.0,  999.0,  999.0
2005/10/17 05:00,  999.0,   -3.3,   -3.9,   -5.4,   -7.7,   -4.1,   -2.1,   -0.2,    0.5,    2.3,    2.5,    3.5,    4.5,    6.7,    8.1,  999.0,  999.0,   13.2,   13.8,   12.3,   12.0,   11.2,   10.1,   11.5,   11.8,   11.4,   12.1,  999.0,  999.0,  999.0,  999.0,  999.0,   55.1,   55.1,   55.1,  999.0,   55.1,   55.1,   55.2,   55.2,   55.2,   55.2,   55.2,   55.3,   55.2,   55.4,   55.2,   55.3,   55.2,   55.3,   55.2,   55.1,  999.0,  999.0,  999.0,  999.0,  999.0,  999.0,  999.0,  999.0,  999.0,  999.0,  999.0
2005/10/17 05:10,  999.0,   -2.6,   -2.9,   -7.4,   -6.4,  999.0,   -2.4,  999.0,   -0.3,    1.7,    2.4,    3.1,    4.2,    6.8,    9.0,   10.3,   11.5,   12.7,   12.6,   12.5,   11.1,   11.3,   12.4,   14.1,   12.7,   11.7,  999.0,  999.0,  999.0,  999.0,  999.0,  999.0,  999.0,   55.0,   55.1,   55.1,   55.0,   55.1,   55.1,   55.1,   55.1,   55.2,   55.1,   55.0,   55.3,   55.3,   55.2,   55.3,   55.6,  999.0,   55.3,  999.0,  999.0,  999.0,  999.0,  999.0,  999.0,  999.0,  999.0,  999.0,  999.0,  999.0,  999.0
2005/10/17 05:20,  999.0,   -2.1,   -2.1,   -7.1,   -5.9,   -3.0,   -1.5,   -0.2,    0.5,    2.0,    2.5,    3.0,    4.7,    6.6,    9.1,  999.0,  999.0,   12.4,   12.9,   12.2,   12.4,   12.3,   13.2,   14.2,   13.2,   12.8,  999.0,  999.0,  999.0,  999.0,  999.0,  999.0,  999.0,  999.0,  999.0,   55.1,  999.0,   55.1,   55.1,   55.1,   55.1,   55.1,   55.2,   55.2,   55.2,   55.3,   55.1,   55.2,   55.2,   55.3,   55.4,   55.2,   55.4,   55.3,   55.0,   55.0,  999.0,  999.0,  999.0,  999.0,  999.0,  999.0,  999.0
2005/10/17 05:30,  999.0,  999.0,   -5.0,  999.0,  999.0,  999.0,   -2.3,    1.2,    2.0,    1.3,    2.8,    2.8,    7.0,   11.4,  999.0,  999.0,  999.0,   11.6,   12.6,   12.8,   12.2,   12.1,   12.4,   12.9,   14.1,   13.2,  999.0,  999.0,  999.0,  999.0,  999.0,  999.0,  999.0,   55.1,   55.1,   55.1,   55.1,   55.1,   55.1,   55.2,   55.1,   55.2,   55.1,   55.1,   55.3,   55.3,   55.4,   55.3,   55.1,   55.1,   55.9,   55.1,   55.3,  999.0,  999.0,  999.0,  999.0,  999.0,  999.0,  999.0,  999.0,  999.0,  999.0
2005/10/17 05:40,  999.0,  999.0,   -2.6,  999.0,   -2.7,   -1.8,   -0.9,   -0.4,    0.3,    1.9,   -0.1,  999.0,    4.8,  999.0,  999.0,  999.0,  999.0,   13.8,   14.0,   14.3,   12.7,  999.0,   11.0,   12.3,   12.2,  999.0,  999.0,  999.0,  999.0,  999.0,  999.0,  999.0,  999.0,   55.1,   55.0,   55.0,   55.1,   55.0,   55.1,  999.0,   55.1,   55.2,   55.2,   55.2,   55.2,  999.0,   55.2,   55.2,   55.2,   55.4,  999.0,   56.2,  999.0,  999.0,  999.0,   54.7,  999.0,  999.0,  999.0,  999.0,  999.0,  999.0,  999.0
2005/10/17 05:50,  999.0,   -2.4,  999.0,  999.0,  999.0,   -2.6,   -1.8,   -0.3,    0.3,    1.1,    2.3,    2.4,    2.8,    6.4,    8.9,    8.6,  999.0,   13.2,   13.2,   12.9,   11.5,   11.9,   11.9,   11.5,   11.6,  999.0,   12.8,  999.0,  999.0,  999.0,  999.0,  999.0,  999.0,   55.0,   55.0,   55.0,   55.1,   55.0,   55.0,   55.1,   55.0,   55.1,   55.0,   55.1,   55.1,   55.1,   55.3,   55.2,   55.0,   54.9,   54.9,  999.0,   55.3,   55.6,  999.0,  999.0,  999.0,  999.0,  999.0,  999.0,  999.0,  999.0,  999.0
2005/10/17 06:00,  999.0,   -2.9,   -3.3,   -1.5,   -3.2,   -2.6,   -1.0,   -0.7,    1.0,    2.7,    3.2,    3.5,    4.2,    6.1,    7.6,  999.0,  999.0,   12.3,   13.2,   12.7,   12.6,   13.5,   13.1,   13.0,   12.9,   12.0,   13.0,   13.5,  999.0,  999.0,   12.8,   12.1,  999.0,  999.0,   55.1,   55.0,   55.2,   55.1,   55.1,   55.1,   55.1,   55.1,   55.2,   55.1,   55.1,   55.1,   55.3,   55.3,   55.2,   55.2,   55.1,   55.1,   55.5,  999.0,  999.0,  999.0,  999.0,  999.0,  999.0,  999.0,  999.0,  999.0,  999.0
2005/10/17 06:10,  999.0,   -1.6,   -3.0,   -1.5,   -1.2,   -3.5,   -2.8,   -1.5,    1.0,    2.9,    3.9,    3.8,    3.0,    3.7,  999.0,  999.0,  999.0,  999.0,   12.3,   11.8,   12.2,   12.9,   12.6,   12.5,   12.4,   12.0,   12.3,   13.2,   12.8,   13.1,   12.4,   13.1,  999.0,  999.0,  999.0,  999.0,  999.0,  999.0,  999.0,   55.1,   55.2,   55.4,   55.3,   55.4,   55.3,   55.4,   55.4,   55.4,   55.4,  999.0,  999.0,  999.0,  999.0,  999.0,  999.0,  999.0,  999.0,  999.0,  999.0,  999.0,  999.0,  999.0,  999.0
2005/10/17 06:20,  999.0,   -0.0,   -0.5,    0.6,    3.3,  999.0,   -2.6,   -0.5,  999.0,    1.6,  999.0,    4.0,    4.2,    7.0,    8.8,   11.2,   12.0,   12.8,   13.6,   13.8,   13.4,   10.1,   11.0,   11.8,   12.8,   13.0,   12.9,   12.6,   12.8,   14.2,  999.0,  999.0,   12.5,  999.0,  999.0,  999.0,  999.0,  999.0,   55.1,   55.2,   55.0,   55.1,   55.1,   55.0,   55.2,   55.1,   55.2,   55.3,   55.3,   55.2,   55.8,   55.4,  999.0,  999.0,  999.0,  999.0,  999.0,  999.0,  999.0,  999.0,  999.0,  999.0,  999.0
2005/10/17 06:30,  999.0,   -2.1,   -3.1,   -2.2,  999.0,  999.0,   -2.0,   -2.3,   -0.5,    1.4,    2.7,    2.1,    4.2,    5.8,    8.2,   10.4,   11.6,   12.2,   14.1,   13.8,   11.3,   10.6,   10.6,   11.1,   11.7,   11.9,   12.2,   13.4,   13.9,   14.9,   15.1,  999.0,  999.0,  999.0,  999.0,  999.0,  999.0,  999.0,  999.0,   55.1,   55.1,   55.2,   55.2,   55.2,   55.3,   55.5,   55.5,   55.2,   55.5,  999.0,  999.0,  999.0,  999.0,  999.0,  999.0,  999.0,  999.0,  999.0,  999.0,  999.0,  999.0,  999.0,  999.0
2005/10/17 06:40,  999.0,   -1.6,   -2.4,   -1.0,  999.0,  999.0,   -2.3,   -1.6,   -0.4,    2.2,    3.6,    4.2,    5.8,    8.1,    9.9,   13.2,   14.0,   12.8,   12.9,   12.9,   11.3,   10.0,    9.3,   10.0,   10.5,   11.6,   13.0,   14.5,   15.3,   15.2,   15.3,   16.0,  999.0,  999.0,  999.0,  999.0,  999.0,  999.0,  999.0,  999.0,   55.2,   55.2,   55.2,   55.2,   55.2,   55.2,   55.1,   55.1,   55.4,  999.0,  999.0,   54.6,  999.0,  999.0,  999.0,  999.0,  999.0,  999.0,  999.0,  999.0,  999.0,  999.0,  999.0
2005/10/17 06:50,  999.0,   -1.1,   -1.9,   -1.2,   -3.6,   -3.1,  999.0,   -1.7,    0.5,    0.9,    1.4,    3.1,    1.2,    2.3,    5.6,    9.0,  999.0,  999.0,   12.1,   11.9,   10.7,   11.5,   10.3,   11.0,   11.5,   12.5,   12.6,   12.7,   13.2,   13.3,   14.2,   13.4,  999.0,  999.0,  999.0,  999.0,  999.0,   55.1,   55.1,   55.1,   55.1,   55.2,   55.1,   55.2,   55.1,   55.2,   55.2,   55.4,   55.2,   54.7,  999.0,   55.6,  999.0,  999.0,  999.0,  999.0,  999.0,  999.0,  999.0,  999.0,  999.0,  999.0,  999.0
2005/10/17 07:00,  999.0,   -0.2,   -0.4,   -0.7,   -1.8,   -0.9,   -1.0,   -1.3,   -0.7,    0.6,    1.0,    1.5,    1.5,    1.4,    2.8,    6.9,  999.0,    4.6,    1.6,    4.8,    0.1,    5.7,    3.7,    5.0,   11.0,   11.6,   11.9,   12.5,   12.7,   13.9,   14.8,   13.9,  999.0,  999.0,  999.0,  999.0,  999.0,   55.1,   55.1,   55.2,   55.1,   55.3,   55.2,   55.2,   55.1,   55.3,   55.2,   55.2,   55.2,   55.4,   55.4,   55.3,   55.5,   55.4,   55.2,  999.0,  999.0,  999.0,  999.0,  999.0,  999.0,  999.0,  999.0
2005/10/17 07:10,  999.0,    1.2,    1.8,    0.9,    0.7,    0.5,   -0.4,   -2.4,   -3.3,   -2.8,   -3.3,   -2.2,   -3.7,   -3.4,   -5.2,   -7.1,   -9.3,   -7.6,  -10.7,  999.0,  999.0,  999.0,  -12.4,  -11.7,  -11.3,  -10.9,  -12.1,  -13.2,  999.0,  999.0,  999.0,  999.0,  999.0,  999.0,  999.0,  999.0,   54.9,   55.0,   55.1,   36.8,   22.0,   22.0,   22.1,   22.0,   22.0,   22.0,   33.1,   33.2,   27.7,   27.6,  999.0,  999.0,   27.9,  999.0,  999.0,  999.0,  999.0,  999.0,  999.0,  999.0,  999.0,  999.0,  999.0
2005/10/17 07:20,  999.0,  999.0,    2.2,    1.8,   -0.4,    0.4,   -0.3,  999.0,   -2.8,   -2.9,   -4.2,   -2.7,   -3.1,   -4.8,   -5.6,   -7.6,  999.0,  999.0,  -11.1,  999.0,  -12.2,  -11.4,  -11.1,  -12.4,  -11.4,  -12.2,  -11.6,  -12.1,  -13.4,  999.0,  -16.0,  999.0,  999.0,  999.0,  999.0,  999.0,  999.0,  999.0,  999.0,  -55.1,  999.0,  -55.1,  -55.1,  999.0,  -55.5,  -36.8,   -0.0,  -18.4,  -27.9,  999.0,  -27.5,  -27.8,  999.0,  999.0,  999.0,  999.0,  999.0,  999.0,  999.0,  999.0,  999.0,  999.0,  999.0
2005/10/17 07:30,  999.0,    3.1,    2.3,    2.6,    1.4,    0.1,  999.0,   -0.6,   -2.3,   -2.3,   -1.4,   -2.2,   -2.7,   -3.7,   -5.7,  999.0,   -9.9,  -10.8,  -10.4,  -10.8,  -10.8,  -11.9,  -11.9,  -12.3,  -12.4,  -11.9,  -12.1,  -12.3,  -13.1,  -13.4,  999.0,  999.0,  999.0,  999.0,  999.0,  -55.2,  -55.1,  -55.2,  -55.1,  -55.1,  -55.1,  -55.2,  -55.1,  -55.2,  -55.1,  -55.2,  -55.4,  -55.2,  -55.2,  -55.2,  -55.1,  -55.4,  999.0,  999.0,  999.0,  999.0,  999.0,  999.0,  999.0,  999.0,  999.0,  999.0,  999.0
2005/10/17 07:40,  999.0,    1.9,    3.6,    2.3,    1.5,   -0.2,   -1.3,   -2.7,   -3.0,   -1.8,   -2.0,   -2.3,   -2.3,   -3.4,   -5.5,   -8.0,   -9.3,   -9.6,   -9.6,   -9.8,  -11.0,  -11.5,  -12.4,  -12.9,  -12.9,  -13.2,  -12.8,  -13.4,  -13.8,  999.0,  -14.2,  -13.1,  999.0,  999.0,  999.0,  999.0,  999.0,  999.0,  -55.1,  -55.1,  -55.2,  -55.3,  -55.1,  -55.2,  -55.2,  -55.2,  -55.1,  -55.3,  -55.4,  999.0,  999.0,  999.0,  999.0,  999.0,  999.0,  999.0,  999.0,  999.0,  999.0,  999.0,  999.0,  999.0,  999.0
2005/10/17 07:50,  999.0,  999.0,  999.0,    1.9,    0.9,    0.3,   -1.4,   -2.7,   -2.4,   -1.0,   -1.7,   -2.1,   -2.5,   -4.0,   -6.1,  999.0,  -10.3,  -11.2,  -10.5,  -11.1,  -10.9,  -11.3,  -12.2,  -12.3,  -12.0,  -11.8,  -11.1,  -12.7,  -12.1,  -11.8,  -12.2,  -11.5,  999.0,  999.0,  999.0,  999.0,  999.0,  999.0,  999.0,  999.0,  999.0,  -55.2,  -55.1,  999.0,  -55.2,  -55.1,  999.0,  -55.2,  -55.3,  -55.2,  -55.3,  -55.2,  999.0,  999.0,  -55.9,  999.0,  999.0,  999.0,  999.0,  999.0,  999.0,  999.0,  999.0
2005/10/17 08:00,  999.0,    4.1,    3.8,    2.4,    1.4,    0.4,   -1.1,   -2.7,   -1.8,   -1.6,   -1.4,   -2.1,   -2.8,   -5.0,   -7.0,   -8.6,  -10.9,  -11.0,  -10.6,  -10.5,  -11.1,  -11.5,  -11.5,  -11.5,  -12.2,  -12.4,  999.0,  -11.8,  -12.0,  -12.4,  999.0,  999.0,  999.0,  999.0,  999.0,  999.0,  999.0,  999.0,  -55.0,  -55.1,  -55.2,  -55.2,  -55.2,  -55.1,  -55.2,  -55.3,  -55.1,  -55.3,  -55.4,  -55.2,  999.0,  -55.5,  -55.2,  -55.3,  -55.5,  999.0,  999.0,  999.0,  999.0,  999.0,  999.0,  999.0,  999.0
2005/10/17 08:10,  999.0,    1.8,    2.4,    0.9,    0.0,   -0.7,   -1.5,   -2.4,   -2.5,   -1.8,   -1.7,   -2.8,   -3.3,   -5.2,   -6.1,   -7.5,   -9.8,   -9.9,  -10.1,   -9.8,  -10.3,  -10.6,  -11.0,  -11.3,  -12.7,  -12.5,  -11.7,  -11.3,  -11.9,  -12.5,  -12.9,  999.0,  999.0,  999.0,  999.0,  999.0,  999.0,  999.0,  -55.0,  -55.1,  -55.1,  -55.1,  -55.2,  999.0,  -55.1,  -55.3,  999.0,  -55.2,  -55.3,  999.0,  -55.2,  999.0,  999.0,  999.0,  999.0,  999.0,  999.0,  999.0,  999.0,  999.0,  999.0,  999.0,  999.0
2005/10/17 08:20,  999.0,    0.9,    3.4,    1.8,    0.1,   -0.8,   -0.9,   -1.4,   -0.9,   -1.1,   -1.9,   -3.3,   -3.9,   -5.5,   -6.9,   -7.7,   -9.8,   -9.5,   -8.6,   -9.3,   -9.9,  -10.3,  -10.3,  -10.3,  -10.2,  -11.7,  -11.2,  -11.7,  -12.0,  -11.5,  999.0,  999.0,  999.0,  999.0,  999.0,  999.0,  -55.2,  -55.0,  -54.9,  -55.1,  -55.0,  -55.1,  -55.0,  -55.2,  -55.0,  -55.1,  -55.3,  -55.3,  -55.1,  -55.2,  -55.0,  -55.3,  999.0,  999.0,  999.0,  999.0,  999.0,  999.0,  999.0,  999.0,  999.0,  999.0,  999.0
2005/10/17 08:30,  999.0,    1.8,    2.9,    1.3,    0.7,   -0.7,   -0.5,   -1.2,   -1.5,   -1.3,   -1.8,   -3.7,   -4.9,   -6.6,   -7.8,   -8.8,   -9.4,   -8.8,   -8.5,   -9.4,   -9.9,  -10.2,  -11.0,  -11.7,  -11.5,  -11.4,  -11.6,  -11.7,  999.0,  999.0,  999.0,  999.0,  999.0,  999.0,  999.0,  -55.0,  -55.1,  -55.0,  -55.1,  -55.1,  -55.1,  -55.1,  -55.1,  -55.1,  -55.3,  -55.2,  -55.3,  -55.2,  -55.3,  -55.2,  -55.3,  -55.5,  -55.7,  -55.5,  999.0,  -55.1,  999.0,  999.0,  999.0,  999.0,  999.0,  999.0,  999.0
2005/10/17 08:40,  999.0,    3.2,    2.6,    2.1,    0.1,    0.4,   -1.3,   -1.6,   -1.4,   -1.1,   -1.5,   -3.0,   -4.6,   -5.9,   -7.0,   -8.5,  999.0,   -8.0,   -8.3,   -9.4,   -9.6,  -10.4,  -11.3,  -12.1,  -12.9,  -12.6,  -11.8,  999.0,  999.0,  999.0,  999.0,  999.0,  999.0,  999.0,  999.0,  999.0,  -55.0,  -55.1,  -55.1,  -55.1,  -55.1,  -55.1,  -55.2,  -55.2,  -55.2,  -55.2,  -55.1,  -55.3,  -55.2,  -55.3,  -55.3,  -55.3,  -54.8,  999.0,  999.0,  -55.8,  999.0,  999.0,  999.0,  999.0,  999.0,  999.0,  999.0
2005/10/17 08:50,  999.0,    2.4,    3.1,    1.6,    0.3,   -0.1,   -1.0,   -1.4,   -1.2,  999.0,   -1.9,   -2.9,   -4.9,   -5.9,   -7.2,  999.0,   -8.5,   -8.2,   -8.7,   -9.2,   -9.5,   -9.9,  -11.3,  -11.9,  -12.4,  -12.7,  -12.2,  -11.2,  -11.5,  999.0,  999.0,  999.0,  999.0,  999.0,  999.0,  999.0,  999.0,  999.0,  -55.0,  -55.0,  -54.9,  -55.1,  -55.0,  -55.0,  -55.1,  -55.1,  -55.3,  -55.1,  -55.1,  -55.3,  -54.9,  -55.0,  -55.1,  999.0,  999.0,  999.0,  999.0,  999.0,  999.0,  999.0,  999.0,  999.0,  999.0
2005/10/17 09:00,  999.0,    3.0,    2.8,    1.5,    0.1,   -0.3,   -1.2,   -1.2,   -0.9,   -0.6,   -1.5,   -2.9,   -4.5,   -6.1,   -6.9,   -7.4,   -8.4,   -8.6,   -8.7,   -9.1,   -9.2,  -10.3,   -9.6,  -11.2,  -12.4,  -12.9,  -12.0,  -12.1,  -11.9,  999.0,  999.0,  999.0,  999.0,  999.0,  999.0,  -55.0,  -55.0,  -55.1,  -55.1,  -55.2,  -55.1,  -55.1,  -55.1,  -55.2,  -55.2,  -55.2,  -55.1,  -55.1,  -55.2,  -55.1,  -55.1,  -55.5,  -55.1,  999.0,  999.0,  999.0,  999.0,  999.0,  999.0,  999.0,  999.0,  999.0,  -55.2
2005/10/17 09:10,  999.0,    2.8,    2.7,    1.6,    0.3,   -0.2,   -0.8,   -1.2,   -1.6,   -1.1,   -2.2,   -4.6,  999.0,   -5.0,   -5.2,   -7.1,   -8.3,   -8.9,   -8.6,   -8.7,   -9.0,  -10.0,   -9.7,  -10.0,  -10.8,  -11.5,  -11.9,  -12.1,  999.0,  999.0,  999.0,  999.0,  999.0,  999.0,  999.0,  -55.0,  999.0,  -55.1,  -55.1,  -55.1,  -55.1,  -55.1,  -55.1,  -55.2,  -55.1,  -55.2,  -55.1,  -55.0,  999.0,  -55.4,  -55.1,  999.0,  -55.6,  999.0,  999.0,  999.0,  999.0,  999.0,  999.0,  999.0,  999.0,  999.0,  999.0
2005/10/17 09:20,  999.0,    1.4,    2.7,    0.9,    0.2,    0.1,   -1.3,   -1.8,   -1.9,   -2.1,   -3.3,   -4.5,   -5.0,  999.0,  999.0,  999.0,   -7.2,   -7.6,   -8.0,   -8.3,   -9.5,  999.0,   -8.0,   -9.5,  -10.3,  -11.0,  -11.7,  -11.8,  999.0,  999.0,  999.0,  999.0,  999.0,  999.0,  999.0,  999.0,  -55.2,  -55.0,  -55.0,  -55.0,  -54.8,  -55.0,  -55.0,  -55.0,  -54.9,  -55.1,  -55.2,  -55.1,  -55.1,  -55.3,  -55.2,  -55.1,  -55.2,  -55.1,  -55.2,  999.0,  -55.0,  999.0,  999.0,  -55.4,  999.0,  999.0,  -54.8
2005/10/17 09:30,  999.0,    2.6,    2.8,    3.0,   -4.4,   -4.9,   -4.1,   -1.8,   -1.9,  999.0,  999.0,  999.0,  999.0,   -1.8,  999.0,    8.3,  999.0,  999.0,  999.0,  999.0,  999.0,    5.7,    2.4,    3.1,    5.1,    4.2,   12.5,   12.9,   12.5,   13.2,   14.0,  999.0,  999.0,  999.0,  999.0,  999.0,  999.0,  999.0,   27.5,   41.3,   41.3,   27.6,    0.3,   27.7,   41.5,   27.6,   -0.0,   27.9,   27.8,   -0.1,  999.0,  999.0,  -28.0,  999.0,  999.0,  999.0,  999.0,  999.0,  999.0,  999.0,  999.0,  999.0,  999.0
2005/10/17 09:40,  999.0,   -1.7,   -3.0,   -4.8,   -5.1,   -3.5,  999.0,  999.0,  999.0,    3.1,    5.0,    5.1,    7.3,   10.1,   10.9,    8.8,    8.5,    7.7,    7.4,    8.2,    8.1,    8.6,    9.6,   11.2,   10.1,    9.9,   10.8,   10.9,   10.6,   10.6,   12.0,  999.0,  999.0,  999.0,  999.0,  999.0,   54.9,   55.1,   55.2,   55.1,   54.9,   55.2,   55.1,   55.1,   55.0,   55.1,   55.4,   55.2,   55.1,  999.0,  999.0,  999.0,  999.0,  999.0,  999.0,  999.0,  999.0,  999.0,  999.0,  999.0,  999.0,  999.0,  999.0
2005/10/17 09:50,  999.0,   -1.9,   -1.8,   -5.3,   -3.7,   -3.5,   -1.0,    0.9,    0.0,    1.3,    3.4,    6.3,    9.6,    9.9,    8.2,    6.9,    6.0,    5.9,    6.9,    6.9,    8.9,    8.8,    9.8,    9.7,    8.9,   11.1,   11.8,   10.7,   12.2,   11.0,   10.8,  999.0,  999.0,  999.0,  999.0,  999.0,   54.9,   55.0,   55.1,   54.9,   55.1,   55.1,   55.0,   55.3,  999.0,   36.5,  999.0,  999.0,   16.9,  999.0,  999.0,  999.0,  999.0,  999.0,  999.0,  999.0,  999.0,  999.0,  999.0,  999.0,  999.0,  999.0,  999.0
2005/10/17 10:00,  999.0,   -1.5,   -2.7,   -4.1,   -5.7,   -3.8,   -2.6,  999.0,    0.9,    2.6,    3.6,    3.9,   11.1,   10.0,    8.6,    7.2,    6.4,    6.3,    8.3,    5.9,    6.6,    7.4,    9.4,   11.6,   12.2,   11.8,   12.4,   10.6,   12.9,   13.0,   12.8,  999.0,  999.0,  999.0,  999.0,  999.0,  999.0,  999.0,  999.0,  999.0,   -2.8,   -0.3,   -2.6,  999.0,   -1.9,   -2.0,  999.0,  999.0,  999.0,  999.0,  999.0,  999.0,  999.0,  999.0,  999.0,  999.0,  999.0,  999.0,  999.0,  999.0,  999.0,  999.0,  999.0
2005/10/17 10:10,  999.0,   -2.0,   -3.2,   -4.4,   -3.5,   -3.6,   -2.2,   -0.1,    1.2,    1.9,    5.5,   10.1,    9.5,    8.2,    6.6,    6.5,    7.3,    7.2,    6.0,    5.7,    5.7,    6.2,    7.0,    8.0,    9.2,    9.3,   10.3,   10.5,   10.1,   11.3,   12.6,   12.5,   12.3,  999.0,  999.0,  999.0,  999.0,  999.0,  999.0,  999.0,  999.0,  999.0,  999.0,   54.8,  999.0,   55.2,   54.9,   55.2,   55.2,   54.9,  999.0,  999.0,  999.0,  999.0,  999.0,  999.0,  999.0,  999.0,  999.0,  999.0,  999.0,  999.0,  999.0
2005/10/17 10:20,  999.0,  999.0,   -1.8,   -7.5,   -4.9,   -4.1,   -1.9,    1.0,    0.1,    1.0,    5.1,    6.9,    7.0,    6.2,    7.0,    7.1,    9.0,    8.9,    7.5,    7.8,    9.1,   10.2,   11.3,   10.4,   11.9,   12.6,   12.7,   11.9,    9.8,   11.2,   13.4,   11.8,   12.5,   11.0,   10.2,   13.5,   13.9,   14.9,   15.3,   20.5,   12.5,  999.0,  999.0,  999.0,  999.0,   55.2,  999.0,  999.0,  999.0,  999.0,  999.0,  999.0,  999.0,  999.0,  999.0,  999.0,  999.0,  999.0,  999.0,  999.0,  999.0,  999.0,  999.0
2005/10/17 10:30,  999.0,   -1.9,   -2.8,   -4.9,   -4.2,   -3.8,   -2.4,    0.2,    0.7,    1.3,    4.2,    5.9,    7.2,    6.4,    5.5,    7.2,    9.6,    9.8,    9.2,   11.4,   10.5,    7.1,    7.9,    6.4,    7.1,    8.9,    5.6,   10.1,   10.4,   11.7,   12.6,   13.1,   13.0,   18.5,   13.8,    9.9,   11.9,  999.0,   33.1,  999.0,  999.0,  999.0,  999.0,  999.0,  999.0,  999.0,  999.0,  999.0,  999.0,  999.0,  999.0,  999.0,  999.0,  999.0,  999.0,  999.0,  999.0,  999.0,  999.0,  999.0,  999.0,  999.0,  999.0
2005/10/17 10:40,  999.0,   -2.2,   -2.6,   -4.7,   -4.5,   -3.5,   -2.2,   -1.0,    0.8,    1.3,    2.8,    5.6,    7.3,    6.7,    6.3,    7.2,    7.9,    8.7,    9.3,   10.6,   10.4,    8.1,    8.9,    8.7,    9.0,    9.2,    8.4,    7.4,    7.8,    7.0,  999.0,  999.0,   45.2,  999.0,  999.0,  999.0,  999.0,  999.0,   55.1,   54.9,   55.1,   55.1,   55.0,   55.1,   55.3,   55.1,   55.3,   55.3,   55.3,   55.4,  999.0,   55.4,  999.0,  999.0,   55.9,  999.0,  999.0,  999.0,  999.0,  999.0,  999.0,  999.0,  999.0
2005/10/17 10:50,  999.0,   -2.4,   -2.3,   -4.9,   -3.6,  999.0,   -1.0,    0.9,    1.4,    3.1,    5.1,    8.5,    7.7,    6.4,    5.4,    6.5,    7.5,    7.9,    8.8,    9.6,    9.5,    8.7,    9.5,    9.3,   11.5,  999.0,  999.0,  999.0,  999.0,  999.0,  999.0,  999.0,   55.0,   55.1,   55.0,   55.0,   55.0,   55.1,   55.1,   55.0,   55.2,   55.1,   55.1,   55.1,   55.2,   55.3,   55.3,   55.3,   55.2,   55.3,   55.3,   55.0,   55.5,   55.7,  999.0,  999.0,  999.0,  999.0,  999.0,  999.0,  999.0,  999.0,  999.0
2005/10/17 11:00,  999.0,   -1.3,   -0.5,   -1.3,   -1.2,   -2.9,   -0.8,    0.5,    1.7,    2.7,    5.3,    7.7,    7.8,    5.9,    6.2,    7.4,    8.1,    8.5,    9.2,   10.2,   10.5,    9.5,   10.5,   11.0,   11.3,   12.0,   12.2,   12.7,  999.0,  999.0,  999.0,  999.0,  999.0,  999.0,  999.0,  999.0,   55.1,   55.1,   55.1,   55.2,   55.1,   55.1,   55.1,   55.2,   55.2,   55.1,   55.1,   55.3,   55.4,  999.0,   55.6,  999.0,   55.4,  999.0,  999.0,  999.0,  999.0,  999.0,  999.0,  999.0,  999.0,  999.0,  999.0
2005/10/17 11:10,  999.0,   -1.9,   -0.9,   -1.6,   -2.1,   -2.7,   -1.2,    0.1,    1.1,    2.8,    6.1,    7.7,    7.5,    5.7,    6.4,    7.4,    8.0,    8.7,    9.2,    9.7,   10.3,    9.2,   10.1,   10.9,   11.2,   11.3,   11.8,  999.0,  999.0,  999.0,  999.0,  999.0,  999.0,  999.0,  999.0,   55.0,   55.1,   55.1,   55.0,   55.1,   55.1,   55.1,   55.1,   55.2,   55.2,   55.2,   55.2,   55.2,   55.3,   55.4,   55.3,   55.3,   55.3,  999.0,  999.0,  999.0,  999.0,  999.0,  999.0,  999.0,  999.0,  999.0,  999.0
2005/10/17 11:20,  999.0,   -2.1,   -1.0,   -1.1,   -2.0,   -3.0,   -1.5,    0.1,  999.0,    2.6,    4.6,    6.6,    6.0,    5.4,    5.8,    6.6,    8.0,    8.9,  999.0,  999.0,    9.9,    9.2,    9.7,    9.9,   10.7,   11.4,   12.0,   11.6,  999.0,  999.0,  999.0,  999.0,  999.0,  999.0,  999.0,  999.0,  999.0,  999.0,   55.1,   55.1,   55.1,   55.2,   55.1,   55.1,   55.2,   55.2,   55.2,   55.2,   55.4,   55.1,   55.5,   55.3,  999.0,   55.3,  999.0,  999.0,  999.0,  999.0,  999.0,  999.0,  999.0,  999.0,  999.0
2005/10/17 11:30,  999.0,   -2.4,   -1.1,   -0.9,   -1.5,   -3.2,   -2.0,   -0.4,   -0.0,    2.4,    5.5,    6.6,    4.9,    4.8,    6.2,    7.1,    8.2,    9.9,   10.5,   10.6,    9.8,    9.9,   10.1,   10.6,   10.1,   10.9,   11.5,   11.2,   10.8,   11.3,   12.9,  999.0,  999.0,  999.0,  999.0,  999.0,  999.0,  999.0,   54.9,   55.1,   55.1,   55.2,   55.2,   55.2,   55.3,   55.1,   55.1,   55.5,   55.3,   55.2,  999.0,   55.6,  999.0,  999.0,  999.0,  999.0,  999.0,  999.0,  999.0,  999.0,  999.0,  999.0,  999.0
2005/10/17 11:40,  999.0,   -2.0,   -0.9,   -0.6,   -1.9,   -2.5,   -1.7,   -0.9,    0.1,    1.7,    4.9,    6.7,    5.4,    5.0,    5.5,    6.5,    7.9,    8.8,   10.0,   10.3,    9.4,    9.6,   11.0,   11.0,   11.3,   10.7,   11.5,   11.5,   11.2,   12.0,   12.6,  999.0,  999.0,  999.0,  999.0,  999.0,   55.0,  999.0,   55.0,   55.0,   55.1,   55.0,   55.0,   55.1,   55.1,   55.0,   55.1,   55.3,   54.9,   55.2,   55.3,  999.0,  999.0,  999.0,  999.0,  999.0,   54.9,  999.0,  999.0,  999.0,  999.0,  999.0,  999.0
2005/10/17 11:50,  999.0,   -1.9,   -0.7,   -1.4,   -1.5,   -2.3,  999.0,    0.3,    0.3,    1.6,    3.9,  999.0,    5.4,    4.7,    5.1,    5.8,    6.9,    9.2,    9.7,    9.7,   10.6,   11.3,   11.6,   11.8,   11.1,   10.4,   11.0,   11.4,   12.0,   12.5,   13.2,  999.0,  999.0,  999.0,  999.0,  999.0,  999.0,  999.0,  999.0,  999.0,  999.0,   55.1,   55.2,   55.2,   55.1,   55.2,   55.1,   55.1,   55.2,   55.2,   55.2,   55.2,   55.1,   55.3,   55.3,  999.0,  999.0,  999.0,  999.0,  999.0,  999.0,  999.0,  999.0
2005/10/17 12:00,  999.0,   -1.2,   -1.0,   -1.5,   -1.3,   -1.6,    0.0,    0.9,    2.1,    0.4,    2.3,    5.3,    3.9,    3.1,    4.6,    5.5,    7.2,    7.7,    9.6,   10.3,   11.1,   11.5,   12.0,   12.7,   12.4,   11.9,   11.8,   12.4,   12.4,   13.5,   14.4,   13.8,   14.7,   14.2,  999.0,  999.0,  999.0,  999.0,  999.0,  999.0,   46.5,   55.0,   55.2,   55.1,   55.0,   55.2,   54.9,   55.3,   55.2,   55.2,   55.3,  999.0,   55.4,  999.0,  999.0,  999.0,  999.0,  999.0,  999.0,  999.0,  999.0,  999.0,  999.0
2005/10/17 12:10,  999.0,    2.6,   -1.1,   -2.4,   -1.3,   -2.6,  999.0,    0.6,    0.2,    0.7,    2.0,    3.8,    5.2,    5.4,    5.3,    5.3,    5.9,    6.3,    7.6,    7.8,    9.9,   11.3,   11.0,   11.8,   10.9,   11.9,   12.4,   12.6,   12.9,   14.3,   14.9,   15.1,  999.0,   17.6,   18.5,  999.0,   22.1,  999.0,  999.0,  999.0,  999.0,  999.0,  999.0,  999.0,  999.0,  999.0,   55.1,   55.1,   55.1,   55.3,   55.4,  999.0,   55.1,   55.4,  999.0,  999.0,  999.0,  999.0,  999.0,  999.0,  999.0,  999.0,  999.0
2005/10/17 12:20,  999.0,   -2.7,   -3.5,   -4.9,   -5.1,   -3.2,   -1.1,    0.4,    1.7,    1.6,    3.5,    6.2,    6.5,    5.0,    4.1,    5.0,    5.9,    6.3,    7.0,    7.7,    9.0,   10.0,   10.4,   11.1,   11.3,   12.4,   12.5,   12.5,   12.7,   12.7,   13.9,   15.5,   15.1,   16.3,  999.0,   15.3,   29.2,   34.8,   34.8,   16.2,   30.3,   31.2,   37.2,  999.0,  999.0,  999.0,   55.3,   55.1,   55.1,   55.0,   55.2,  999.0,  999.0,  999.0,  999.0,  999.0,  999.0,  999.0,  999.0,  999.0,  999.0,  999.0,  999.0
2005/10/17 12:30,  999.0,   -1.1,   -2.1,   -3.9,   -4.1,   -2.1,    1.2,    2.8,    2.0,    2.4,    5.4,    6.8,    8.5,    8.5,    7.0,    5.9,  999.0,  999.0,    4.0,  999.0,  999.0,    7.2,    9.4,   10.1,   11.4,   11.1,   10.8,   11.6,  999.0,  999.0,  999.0,  999.0,  999.0,  999.0,  999.0,  999.0,   55.0,   55.0,   52.9,   53.1,   52.9,   53.0,   52.4,   55.1,   55.3,   55.4,   55.4,   55.4,  999.0,  999.0,  999.0,  999.0,  999.0,  999.0,  999.0,  999.0,  999.0,  999.0,  999.0,  999.0,  999.0,  999.0,  999.0
2005/10/17 12:40,  999.0,   -2.1,   -3.6,   -4.8,   -4.3,   -2.8,    0.1,    0.6,    1.8,    5.7,    8.2,    8.5,    8.9,    7.8,    6.3,    5.4,    5.2,    3.4,    2.4,    6.5,    6.5,    8.5,    8.7,   10.9,   11.0,   11.6,   11.5,   11.8,   12.3,   11.7,   12.4,   13.9,   14.9,   15.5,  999.0,  999.0,  999.0,  999.0,   18.0,   29.0,   27.1,   27.4,   29.4,   25.3,   27.5,  999.0,   28.9,   30.0,   29.2,  999.0,  999.0,  999.0,  999.0,  999.0,  999.0,  999.0,  999.0,  999.0,  999.0,  999.0,  999.0,  999.0,  999.0
2005/10/17 12:50,  999.0,   -3.0,   -2.1,   -3.7,   -4.4,   -1.9,    0.8,    0.5,    4.0,    6.2,    8.4,   10.6,   16.6,   18.6,   16.4,   15.0,   12.3,   14.2,    6.4,    6.5,    5.6,    6.0,   10.2,   10.6,    9.2,   10.7,   13.7,   13.7,   14.2,   12.7,    1.6,   -5.3,    0.2,    7.2,    8.7,   14.9,   18.8,  999.0,  999.0,  999.0,  999.0,   -0.3,   -0.7,   -0.9,    0.6,  999.0,  999.0,  999.0,  999.0,  999.0,  999.0,  999.0,  999.0,  999.0,  999.0,  999.0,  999.0,  999.0,  999.0,  999.0,  999.0,  999.0,  999.0
2005/10/17 13:00,  999.0,   -0.8,   -3.6,   -4.1,   -3.5,   -0.4,   -0.1,    0.6,    3.0,    5.1,    6.1,    9.4,    9.4,    8.3,    6.6,    4.6,    4.6,    4.1,    4.3,    3.8,    5.2,    5.6,    5.0,    4.6,    6.8,    7.6,    8.8,   10.4,   10.2,   11.1,   11.2,   10.7,   11.8,   12.7,   13.9,   16.2,   18.6,   20.4,   18.4,  999.0,  999.0,  999.0,  999.0,  999.0,   -0.7,   -0.5,  999.0,  999.0,  999.0,  999.0,  999.0,  999.0,  999.0,  999.0,  999.0,  999.0,  999.0,  999.0,  999.0,  999.0,  999.0,  999.0,  999.0
2005/10/17 13:10,  999.0,   -0.7,   -2.0,   -3.5,   -3.7,   -2.3,   -1.8,   -0.7,    1.1,    3.2,    4.6,    6.1,    5.7,    5.1,    5.1,    4.7,    4.3,    4.6,    4.9,    6.2,    7.6,    8.2,    8.2,    7.6,    7.9,    8.7,    9.0,    9.3,    9.8,   11.8,   11.7,   11.7,   13.5,   15.3,   15.2,   14.5,   15.0,   14.9,   15.9,   16.0,   16.4,   16.9,  999.0,  999.0,  999.0,  999.0,  999.0,  999.0,  999.0,  999.0,  999.0,  999.0,  999.0,  999.0,  999.0,  999.0,  999.0,  999.0,  999.0,  999.0,  999.0,  999.0,  999.0
2005/10/17 13:20,  999.0,   -0.7,   -1.9,   -3.3,   -3.6,   -2.0,   -1.0,   -0.2,    1.8,    3.8,    5.2,    8.8,    7.1,    5.2,    4.6,    4.1,    2.6,  999.0,    4.3,    6.3,    2.8,    2.7,   -1.8,    0.9,    8.9,    8.9,    9.2,    9.4,    9.6,   11.4,   14.9,   14.6,   15.0,   15.9,   14.5,   13.4,   14.4,   14.9,   16.1,   17.3,   17.7,  999.0,  999.0,   16.7,   15.9,  999.0,  999.0,  999.0,  999.0,  999.0,  999.0,  999.0,  999.0,  999.0,  999.0,  999.0,  999.0,  999.0,  999.0,  999.0,  999.0,  999.0,  999.0
2005/10/17 13:30,  999.0,   -1.4,   -2.5,   -3.7,   -3.2,   -1.4,   -0.4,   -0.4,    2.5,    4.5,    6.4,    6.7,    6.7,    6.9,    6.4,    6.1,    6.1,    5.8,    5.3,    5.2,    4.6,    4.4,    4.2,    6.3,    5.5,    8.0,    8.8,    8.7,    9.6,   12.0,   12.7,   15.5,   17.5,   16.2,   15.8,   16.0,   16.4,   17.1,   17.9,   18.2,   18.9,   18.9,   17.9,   17.5,   17.1,   15.7,  999.0,  999.0,  999.0,  999.0,  999.0,  999.0,  999.0,  999.0,  999.0,  999.0,  999.0,  999.0,  999.0,  999.0,  999.0,  999.0,  999.0
2005/10/17 13:40,  999.0,   -1.3,   -2.1,   -3.4,   -3.0,   -0.9,    1.3,    1.5,    0.8,    5.4,    6.8,    6.3,    6.8,    8.1,    7.9,    7.9,    9.8,    8.4,    9.5,   10.1,    8.2,    6.7,    9.2,    5.2,    5.1,    8.2,   10.1,    9.1,   12.2,   13.2,   13.3,   14.9,   14.9,   15.3,   15.7,  999.0,   17.8,   17.9,  999.0,   16.8,   16.9,  999.0,   16.9,  999.0,   16.3,   18.2,  999.0,  999.0,  999.0,  999.0,  999.0,  999.0,  999.0,  999.0,  999.0,  999.0,  999.0,  999.0,  999.0,  999.0,  999.0,  999.0,  999.0
2005/10/17 13:50,  999.0,   -1.4,   -1.4,   -1.2,   -0.1,    0.9,    2.0,    2.8,    3.8,    4.2,    5.0,    7.1,    7.5,    7.5,    8.1,    8.4,    7.8,    7.1,    6.1,    5.6,    6.0,    5.9,    4.6,    7.1,    8.3,   10.0,   11.7,   13.2,   13.9,   13.7,   13.2,   17.3,  999.0,  999.0,  999.0,  999.0,  999.0,  999.0,   17.7,   17.1,   16.8,   15.2,   17.3,   17.2,   17.2,   17.3,   16.6,   17.6,  999.0,  999.0,  999.0,  999.0,  999.0,  999.0,  999.0,  999.0,  999.0,  999.0,  999.0,  999.0,  999.0,  999.0,  999.0
2005/10/17 14:00,  999.0,   -1.1,   -1.2,   -1.7,   -2.4,    0.8,    1.7,    2.9,    4.0,    4.6,    5.7,    6.4,    8.5,    8.8,    7.8,    8.1,    8.4,    7.4,    6.5,    6.2,    5.6,    6.9,    6.8,    7.1,   11.5,   11.2,   13.2,   15.0,   14.8,   15.4,   12.9,   17.0,   18.0,  999.0,   17.8,   17.8,   19.1,  999.0,  999.0,  999.0,  999.0,  999.0,  999.0,  999.0,  999.0,  999.0,  999.0,  999.0,  999.0,  999.0,  999.0,  999.0,  999.0,  999.0,  999.0,  999.0,  999.0,  999.0,  999.0,  999.0,  999.0,  999.0,  999.0
2005/10/17 14:10,  999.0,   -1.2,   -1.2,   -2.6,   -2.0,    1.2,    2.0,    2.7,    3.5,    5.2,    7.2,    8.6,    7.7,    7.1,    7.3,    7.3,    7.3,    6.4,    5.4,  999.0,    4.1,  999.0,  999.0,   17.6,   11.1,   10.5,   11.6,   11.4,   11.7,   11.0,   13.4,   15.5,   15.1,   15.5,   17.8,   18.6,   18.1,   18.4,   17.5,   18.2,   18.1,   18.2,   18.8,   18.9,   17.9,   18.9,   19.5,  999.0,  999.0,  999.0,  999.0,  999.0,   54.9,  999.0,  999.0,  999.0,  999.0,  999.0,  999.0,  999.0,  999.0,  999.0,  999.0
2005/10/17 14:20,  999.0,  999.0,   -1.5,   -1.7,   -1.9,   -0.3,    2.1,    1.7,    3.4,    5.3,    7.7,    7.7,    8.0,    7.7,    7.7,    5.8,    6.1,    1.8,    1.6,   -1.1,    0.0,    1.7,    6.9,  999.0,   10.2,    8.0,   10.2,    8.8,    9.9,   11.6,   14.7,   14.6,   15.0,   17.9,   16.2,   17.2,   18.7,   18.1,   18.4,   18.0,   18.4,   17.5,   17.7,   20.0,   17.7,   19.4,   17.7,   18.5,  999.0,  999.0,  999.0,  999.0,  999.0,  999.0,  999.0,  999.0,  999.0,  999.0,  999.0,  999.0,  999.0,  999.0,  999.0
2005/10/17 14:30,  999.0,    0.1,   -0.7,   -0.8,   -0.7,   -0.0,    1.1,    1.3,    1.1,    3.3,    3.9,    6.1,    5.8,    5.4,    5.1,    3.0,    1.1,    1.0,    2.1,    2.1,    2.0,    6.0,  999.0,  999.0,    4.3,   10.7,   11.2,    9.3,   13.9,   15.1,   17.2,   16.1,   15.0,   14.5,   16.6,   17.4,   20.6,   22.9,   21.9,   22.9,   22.6,   20.8,   15.3,   21.6,   21.2,   23.9,   24.8,   25.3,   26.3,  999.0,  999.0,  999.0,  999.0,  999.0,  999.0,  999.0,  999.0,  999.0,  999.0,  999.0,  999.0,  999.0,  999.0
2005/10/17 14:40,  999.0,  999.0,   -1.4,   -1.8,   -0.7,    2.2,    2.6,    3.4,    4.3,    7.1,    9.4,   11.4,   13.4,    9.0,    8.3,    5.1,    3.3,    3.4,    3.1,    4.1,    3.7,    4.8,    6.4,    6.6,   11.1,    5.3,    8.8,    8.4,    6.9,    7.8,   11.4,   15.6,   17.7,   17.5,  999.0,   17.3,  999.0,   19.5,   19.4,   21.3,   23.4,   16.1,   18.2,   16.1,   23.4,   26.5,  999.0,   26.3,   23.7,  999.0,  999.0,  999.0,  999.0,  999.0,  999.0,  999.0,  999.0,  999.0,  999.0,  999.0,  999.0,  999.0,  999.0
2005/10/17 14:50,  999.0,   -0.7,   -0.3,   -0.5,   -0.6,    0.6,    1.7,    2.7,    2.8,    6.8,    9.2,   12.0,   13.2,   13.2,    9.4,    9.2,    6.4,    7.7,    4.5,  999.0,  999.0,   13.8,  999.0,    6.5,    8.7,    8.4,   10.1,    8.2,    8.0,    9.4,    8.1,   11.1,    9.6,   14.8,   17.4,   18.5,   15.7,   15.8,   15.5,   15.4,   16.9,   14.4,   13.5,   12.5,   14.0,   12.6,   17.0,   24.4,   23.7,   18.1,   20.6,   20.7,  999.0,  999.0,  999.0,  999.0,  999.0,  999.0,  999.0,  999.0,  999.0,  999.0,  999.0
2005/10/17 15:00,  999.0,  999.0,  999.0,   -0.9,   -1.1,    0.2,    3.0,    2.4,    2.4,    4.3,    3.0,    5.5,    6.7,    5.5,    7.9,    8.4,    7.6,  999.0,    5.5,    4.3,    4.3,    3.1,    4.7,    6.5,    7.5,    8.2,    9.4,   10.2,    9.6,    9.5,   10.3,   14.6,   15.3,   17.0,   19.9,   20.7,   20.6,   16.5,   15.4,   17.4,   15.0,   19.9,   15.8,   16.5,   17.8,   18.7,  999.0,  999.0,  999.0,  999.0,  999.0,  999.0,  999.0,  999.0,  999.0,  999.0,  999.0,  999.0,  999.0,  999.0,  999.0,  999.0,  999.0
2005/10/17 15:10,  999.0,   -0.2,   -0.7,   -2.9,   -2.9,   -1.9,    0.5,    0.5,    1.1,    3.4,    4.8,    6.0,    7.6,    7.1,    7.7,    6.5,    5.1,    3.8,    2.5,    0.8,    2.2,    2.3,    2.3,    4.1,    7.9,    8.4,    9.8,    9.8,   12.9,   12.9,   15.5,   17.9,   18.3,   20.1,   19.4,  999.0,  999.0,   20.0,  999.0,   18.5,  999.0,  999.0,  999.0,  999.0,  999.0,  999.0,  999.0,  999.0,  999.0,  999.0,  999.0,  999.0,  999.0,  999.0,  999.0,  999.0,  999.0,  999.0,  999.0,  999.0,  999.0,  999.0,  999.0
2005/10/17 15:20,  999.0,   -0.1,   -0.8,   -1.3,    0.1,   -1.4,    0.9,   -0.0,    0.7,    2.8,    3.8,    5.4,    7.7,    9.6,    9.4,    7.7,    7.0,    5.0,    5.9,    5.8,    2.3,    4.1,    4.6,    6.7,    6.4,    6.0,    8.4,    9.0,    8.1,    7.0,    8.5,   10.0,    9.9,   10.5,   11.5,   13.1,   14.8,   13.8,   13.8,   14.5,   13.7,   13.3,   12.7,   12.5,   11.9,   12.2,   12.6,   16.1,   17.1,   20.2,   18.7,   18.9,   18.0,    9.9,   10.5,    7.2,  999.0,  999.0,  999.0,  999.0,  999.0,  999.0,  999.0
2005/10/17 15:30,  999.0,   -0.3,   -0.3,   -0.9,    0.2,   -1.1,   -0.6,    1.9,    2.4,    5.4,    7.5,    8.1,    9.2,   10.1,    9.8,   10.1,   10.8,    9.8,   11.1,   11.9,   10.9,    6.9,    4.8,    6.2,    5.8,    4.7,    4.7,    5.5,    5.2,    5.5,    6.7,    8.0,    8.6,    8.8,    8.9,   11.5,   11.1,   14.2,   13.8,  999.0,  999.0,  999.0,  999.0,  999.0,  999.0,  999.0,  999.0,  999.0,  999.0,  999.0,  999.0,  999.0,  999.0,  999.0,  999.0,  999.0,  999.0,  999.0,  999.0,  999.0,  999.0,  999.0,  999.0
2005/10/17 15:40,  999.0,   -0.7,   -1.5,   -0.8,    0.4,   -0.9,   -1.2,    0.9,    3.4,    3.6,    6.2,    6.6,    8.0,    9.3,    9.5,    8.5,    7.4,    5.5,    5.5,    6.3,    5.9,    5.4,    5.1,    8.8,    9.8,    9.8,   10.1,   10.2,    9.9,   12.9,   15.1,  999.0,  999.0,  999.0,   15.9,   14.1,   13.7,   12.6,   11.9,   12.3,   12.4,   11.6,   11.4,   11.4,   11.6,   12.2,   12.5,   13.4,   15.1,   15.1,   16.6,   16.3,   17.7,   18.7,  999.0,  999.0,  999.0,  999.0,  999.0,  999.0,  999.0,  999.0,  999.0
2005/10/17 15:50,  999.0,   -1.4,   -2.0,   -1.2,   -0.5,   -0.1,   -0.8,    2.8,    2.1,    5.4,    5.2,    6.0,    9.2,    9.2,   10.4,    7.4,    6.0,    7.4,    7.7,    9.1,   10.5,   11.9,   11.9,    8.2,   11.3,   12.5,    9.1,   12.9,   12.2,   10.8,  999.0,   11.3,   12.0,   13.3,   12.3,   12.9,   14.6,   12.3,  999.0,  999.0,  999.0,  999.0,  999.0,  999.0,  999.0,  999.0,  999.0,  999.0,  999.0,  999.0,  999.0,  999.0,  999.0,  999.0,  999.0,  999.0,  999.0,  999.0,  999.0,  999.0,  999.0,  999.0,  999.0
2005/10/17 16:00,  999.0,   -1.0,   -1.4,   -1.9,   -2.2,  999.0,  999.0,  999.0,    1.2,    4.2,    6.4,    7.3,    9.3,    9.7,    9.3,    9.0,    8.6,    7.9,    7.7,    8.8,   10.5,   11.5,   13.1,   13.3,   13.5,   11.7,   12.3,   12.0,   12.6,   12.3,   12.1,   10.3,   12.2,   11.5,  999.0,  999.0,  999.0,  999.0,  999.0,  999.0,  999.0,  999.0,  999.0,  999.0,  999.0,  999.0,  999.0,   55.0,   55.3,   55.3,   55.2,   55.3,   55.2,   55.2,   55.4,  999.0,  999.0,   55.3,   54.5,   55.7,  999.0,  999.0,  999.0
2005/10/17 16:10,  999.0,   -0.5,   -0.7,   -0.4,    0.3,    0.0,    0.1,    0.9,    2.0,    4.4,  999.0,    7.2,    8.5,    9.0,    8.4,    8.6,    8.4,    9.0,    9.1,   10.4,    8.6,   10.1,   10.9,   11.3,   12.1,   13.7,   13.8,   13.7,   12.5,   13.9,   14.0,   15.9,   16.7,   15.0,   13.1,   10.5,    9.2,    9.0,    8.8,    9.4,    9.7,   10.5,   10.5,   10.6,   12.6,   13.7,   14.2,   13.3,   13.4,   13.7,   13.2,  999.0,  999.0,  999.0,  999.0,  999.0,  999.0,  999.0,  999.0,  999.0,  999.0,  999.0,  999.0
2005/10/17 16:20,  999.0,   -0.8,   -1.0,   -0.8,    0.6,    0.2,   -0.4,    0.5,    2.9,    4.9,    6.5,    8.1,    9.3,    9.4,    7.7,    8.6,    7.2,    8.8,   11.6,   11.6,   12.9,   12.5,   12.7,   13.4,   14.5,   11.9,   11.7,   12.2,   13.5,   14.1,   16.0,   16.8,   16.1,   14.3,   10.6,    8.2,    7.6,    8.6,   10.7,   11.1,   12.3,   12.1,   12.4,   12.1,   11.5,   12.5,   12.2,   13.5,   13.9,   14.8,  999.0,  999.0,  999.0,  999.0,  999.0,  999.0,  999.0,  999.0,  999.0,  999.0,  999.0,  999.0,  999.0
2005/10/17 16:30,  999.0,   -0.7,   -0.6,   -0.7,   -3.1,   -1.4,   -1.3,    0.9,    1.0,    4.6,    4.8,    6.4,    6.2,  999.0,  999.0,  999.0,  999.0,    9.6,    9.7,   11.1,   10.2,   11.6,   10.1,   11.9,   11.6,   12.0,   12.5,   14.6,   16.9,   17.7,   16.7,   15.3,   13.5,   12.3,   10.4,    7.4,    8.1,    8.9,   10.2,   11.4,    9.7,   10.9,   11.5,   12.2,   13.5,   14.5,   15.3,   15.5,   15.8,   16.0,   16.9,   17.1,   16.6,   17.1,  999.0,  999.0,  999.0,  999.0,  999.0,  999.0,  999.0,  999.0,  999.0
2005/10/17 16:40,  999.0,   -1.5,   -2.2,   -1.3,   -0.4,    0.4,    0.0,    1.1,    3.7,    5.7,    6.0,    7.1,    7.1,    5.6,    5.9,    6.0,    7.4,    9.0,   10.4,   11.0,   11.0,    9.7,   11.7,   14.9,   14.6,   16.4,   18.5,   19.5,   19.2,   17.4,   15.1,   14.1,   10.9,    9.0,    7.7,    9.2,    8.8,    8.9,    9.1,    9.3,    9.6,   10.8,   10.6,   10.7,   12.2,   13.4,   13.4,   14.7,   15.7,   16.7,   16.2,   16.3,   16.2,   16.1,   16.9,  999.0,  999.0,  999.0,  999.0,  999.0,  999.0,  999.0,  999.0
2005/10/17 16:50,  999.0,   -1.0,   -2.5,   -1.2,   -0.3,    0.1,   -0.3,    2.0,    4.4,    4.9,    4.2,    5.0,    5.7,    4.5,    2.6,    5.4,    5.9,    6.7,    6.9,   10.9,   12.4,   16.2,   16.4,   17.4,   17.4,   18.6,   20.0,   19.3,   16.7,   14.1,   13.6,   10.4,    9.2,   10.2,    8.8,    8.7,    8.7,    9.0,    9.2,    9.4,    8.5,    9.6,   10.1,   11.5,   13.1,   14.6,   14.9,   13.7,   13.0,   13.6,   14.2,   14.4,   14.7,   15.7,   15.7,   15.0,   15.6,  999.0,  999.0,  999.0,  999.0,  999.0,  999.0
2005/10/17 17:00,  999.0,   -1.2,   -2.1,   -2.3,    0.8,   -0.8,   -0.7,    1.4,    4.1,    3.1,    2.1,    4.7,    5.8,    5.8,    6.6,    6.9,    8.9,   12.1,   14.1,   12.7,   12.5,   15.5,   16.4,   16.9,   17.7,   17.4,   16.9,   15.7,   13.0,   11.4,    9.2,    8.9,    8.2,    8.1,    9.5,   10.5,   10.9,   12.1,   12.3,   13.5,   15.1,   16.1,   15.5,   15.6,   15.5,  999.0,   17.0,   17.0,   14.0,   15.5,  999.0,  999.0,  999.0,  999.0,  999.0,  999.0,  999.0,  999.0,  999.0,  999.0,  999.0,  999.0,  999.0
2005/10/17 17:10,  999.0,   -0.6,   -1.4,   -2.4,   -1.3,    2.7,    3.2,    1.2,    3.8,    4.7,    7.8,    4.5,    5.4,    9.6,    5.9,  999.0,    8.1,    8.7,   11.3,   15.4,  999.0,  999.0,   18.1,   18.1,   20.4,   20.8,   17.9,   14.9,   12.3,   11.1,   10.4,    9.9,   10.2,   10.6,   10.5,   10.3,   10.7,   11.4,   12.4,   13.0,   13.6,   14.3,   15.7,   16.8,   16.4,   16.5,   17.3,   16.5,   18.6,   19.5,  999.0,  999.0,  999.0,  999.0,  999.0,  999.0,  999.0,  999.0,  999.0,  999.0,  999.0,  999.0,  999.0
2005/10/17 17:20,  999.0,   -0.7,   -1.3,   -1.5,   -3.0,   -0.4,   -0.6,    0.4,    2.3,    2.5,    3.8,    4.2,    2.8,    4.3,    1.8,    3.2,    4.3,    4.5,    5.6,    7.0,    8.1,   11.3,   14.8,   16.6,   16.9,   16.8,   16.5,   14.4,   13.0,   11.0,    9.9,    9.1,    8.7,   10.4,   10.4,   10.1,   10.6,   10.2,   10.3,   10.5,   12.9,   13.0,   12.1,   11.8,   12.0,   11.6,   11.8,   10.7,   11.3,   13.7,   14.8,   15.7,   14.7,   17.3,   16.9,   15.8,   16.3,   15.1,  999.0,  999.0,  999.0,  999.0,  999.0
2005/10/17 17:30,  999.0,   -1.7,   -1.9,   -3.1,   -2.6,   -3.0,    0.9,   -0.5,    1.6,    4.4,    4.6,    4.2,    5.1,    5.0,    7.7,    7.6,    9.1,    7.9,   12.4,   12.9,    5.7,    6.8,    9.9,   12.3,   11.3,   11.7,   13.9,   13.4,   14.1,   13.2,   12.1,   10.3,    9.7,   10.2,   10.5,   10.5,   10.8,   10.9,   12.1,   12.8,   13.2,   13.8,   13.7,   14.2,   15.6,   15.1,   12.0,   11.6,   14.2,  999.0,  999.0,   13.1,   13.7,   13.3,   12.3,  999.0,  999.0,  999.0,  999.0,  999.0,  999.0,  999.0,  999.0
2005/10/17 17:40,  999.0,   -0.2,   -1.5,   -1.7,   -1.1,   -0.3,    1.6,    1.7,    1.8,  999.0,  999.0,  999.0,  999.0,  999.0,    8.8,  999.0,   12.7,   12.8,  999.0,  999.0,  999.0,  999.0,   15.4,   11.3,   13.3,   11.0,   12.7,   15.7,   18.1,   18.4,   16.7,   13.7,   11.6,   10.3,   11.6,   11.2,   11.7,   11.3,   11.8,   10.7,   10.7,   12.7,   12.4,   14.2,   15.9,   17.1,   17.3,   18.8,   17.8,  999.0,  999.0,  999.0,  999.0,  999.0,  999.0,  999.0,  999.0,  999.0,  999.0,  999.0,  999.0,  999.0,  999.0
2005/10/17 17:50,  999.0,    0.2,    0.4,   -0.6,   -0.4,    0.5,    1.3,    1.5,    1.4,    0.3,  999.0,  999.0,    5.7,    1.7,   -0.5,    1.8,    3.3,    3.7,    4.1,   10.1,  999.0,  999.0,  999.0,  999.0,   14.3,   15.0,   14.3,   15.6,   16.3,   16.5,   15.7,   15.2,   14.6,   13.7,   12.8,   13.1,   13.2,   13.0,   13.2,   13.3,   14.0,   14.1,   14.4,   14.3,   14.2,   13.9,   13.4,   12.7,   15.4,   13.3,   14.2,   13.9,   14.4,   17.4,  999.0,  999.0,  999.0,  999.0,  999.0,  999.0,  999.0,  999.0,  999.0
2005/10/17 18:00,  999.0,    1.1,    1.4,   -0.1,    0.4,   -0.7,    2.4,    3.8,    2.4,    5.2,  999.0,  999.0,    5.6,  999.0,    6.2,    6.7,  999.0,  999.0,    6.6,  999.0,    7.1,    8.0,  999.0,  999.0,  999.0,  999.0,   13.9,   14.6,   15.8,   17.3,   18.0,   17.1,   15.8,   14.6,   14.9,  999.0,   13.2,  999.0,  999.0,  999.0,  999.0,  999.0,   12.9,  999.0,  999.0,  999.0,  999.0,  999.0,  999.0,  999.0,  999.0,  999.0,  999.0,  999.0,  999.0,  999.0,  999.0,  999.0,  999.0,  999.0,  999.0,  999.0,  999.0
2005/10/17 18:10,  999.0,   -0.7,   -1.6,    1.0,    3.3,    3.6,    1.5,    1.9,    3.2,    4.8,  999.0,    4.7,    5.5,    6.5,    6.2,    6.3,    6.9,    7.7,    9.1,   10.8,   11.9,   12.6,   12.1,   11.8,   12.5,   13.0,   13.8,   14.3,  999.0,   16.3,  999.0,  999.0,  999.0,   11.7,   11.0,   11.5,   31.1,   34.1,   34.5,   35.5,   35.2,   27.9,   35.1,   55.2,   55.3,   55.2,   55.2,   55.2,   55.2,   55.3,   55.5,   55.4,   55.4,  999.0,   55.2,  999.0,  999.0,  999.0,   55.5,  999.0,  999.0,  999.0,  999.0
2005/10/17 18:20,  999.0,    0.0,   -1.2,   -0.9,   -0.2,    0.0,    0.5,    1.5,    4.3,    5.4,    4.3,    4.9,    6.4,    6.5,    6.6,    7.1,    7.5,    7.8,    9.7,   11.5,   12.2,   12.7,   12.0,   12.6,   13.2,   14.2,   14.4,   15.2,   15.8,   16.3,   15.8,   12.8,   13.8,   14.1,  999.0,   11.7,  999.0,   14.2,  999.0,  999.0,   15.0,   14.7,   15.2,  999.0,  999.0,  999.0,  999.0,  999.0,  999.0,  999.0,  999.0,   55.3,  999.0,  999.0,   55.1,  999.0,  999.0,  999.0,  999.0,  999.0,  999.0,  999.0,  999.0
2005/10/17 18:30,  999.0,   -0.2,   -0.8,   -0.7,    0.1,   -0.1,    1.0,    2.3,    3.0,    4.4,    4.6,    4.6,    6.2,    6.7,    6.2,    6.2,    7.1,    7.9,    8.5,   10.2,   11.2,   11.1,   11.6,   12.2,   12.9,   13.4,   14.2,   15.0,   16.0,   17.3,   19.0,  999.0,  999.0,  999.0,  999.0,   15.3,  999.0,  999.0,  999.0,  999.0,   17.6,   17.2,  999.0,  999.0,  999.0,  999.0,  999.0,  999.0,  999.0,  999.0,  999.0,  999.0,  999.0,  999.0,  999.0,  999.0,  999.0,  999.0,  999.0,  999.0,  999.0,  999.0,  999.0
2005/10/17 18:40,  999.0,   -0.5,   -0.2,   -0.3,   -0.1,    0.6,    1.1,    2.2,    3.1,    4.7,  999.0,    4.3,    6.0,    6.4,    6.2,    6.3,    7.0,    7.1,    9.1,   10.4,   11.1,   11.6,   12.1,   12.5,   12.8,   13.1,   13.9,   14.9,   16.4,   16.9,   17.6,   17.9,   15.6,   15.2,   13.4,  999.0,  999.0,  999.0,  999.0,  999.0,  999.0,  999.0,   50.1,   52.7,   55.2,   55.2,   55.4,   55.1,   55.3,  999.0,   55.4,   55.3,   55.4,   55.1,  999.0,  999.0,   55.6,   55.1,  999.0,  999.0,  999.0,  999.0,  999.0
2005/10/17 18:50,  999.0,   -0.1,   -1.2,   -0.8,   -0.6,    0.4,    0.9,    2.3,    2.6,    3.4,  999.0,    3.8,    5.7,    5.9,    5.7,    6.0,    6.7,    7.6,    9.3,   11.1,   11.6,   11.0,   12.0,   12.2,   12.1,   12.6,   13.0,   13.4,   15.1,   16.7,   17.3,   16.8,   15.9,   14.5,   13.5,   13.5,  999.0,  999.0,  999.0,  999.0,  999.0,  999.0,  999.0,   55.0,   55.2,   55.2,   55.3,   55.2,   55.4,   55.1,   55.2,  999.0,  999.0,   55.6,  999.0,  999.0,  999.0,  999.0,  999.0,  999.0,  999.0,  999.0,  999.0
2005/10/17 19:00,  999.0,   -0.5,   -0.8,   -1.1,   -1.4,   -0.1,    0.6,    2.0,    1.8,    2.8,    3.5,    4.3,    5.9,    6.2,    5.8,    6.1,    7.1,    9.4,   10.4,   10.8,   10.9,   10.8,   11.7,   11.2,   11.8,   13.0,   13.6,   14.6,   15.8,   16.4,   16.0,   15.6,   15.2,   14.3,   14.4,   15.5,  999.0,  999.0,  999.0,  999.0,  999.0,  999.0,  999.0,  999.0,   55.4,   55.3,   55.3,   55.4,   55.4,   55.3,   55.9,   55.3,   55.0,   55.4,  999.0,  999.0,  999.0,  999.0,  999.0,  999.0,  999.0,  999.0,  999.0
2005/10/17 19:10,  999.0,   -1.6,   -2.1,   -1.8,   -1.7,   -0.5,    0.6,    1.9,    1.8,    2.6,    3.0,    5.4,    6.7,    6.0,    5.9,    6.5,    7.7,   10.2,   10.9,   11.2,   10.9,   10.5,   10.8,   11.7,   12.0,   12.5,   12.8,   14.8,   16.6,  999.0,   15.4,  999.0,  999.0,  999.0,  999.0,  999.0,  999.0,  999.0,  999.0,  999.0,  999.0,  999.0,  999.0,  999.0,  999.0,  999.0,   55.3,   55.2,   55.4,   55.4,   55.5,   55.4,  999.0,   55.3,   55.4,  999.0,  999.0,  999.0,  999.0,  999.0,  999.0,  999.0,  999.0
2005/10/17 19:20,  999.0,   -0.5,   -1.3,   -1.4,   -1.7,   -1.9,   -0.1,    1.5,    2.4,    2.3,    2.6,    4.7,    6.4,    6.0,    5.7,    6.4,    7.9,    9.6,    9.9,    9.9,    9.8,    9.8,   10.5,   11.2,   11.8,   12.2,   14.1,   16.2,   16.5,   16.7,   17.8,  999.0,  999.0,  999.0,  999.0,  999.0,   55.0,   55.0,   55.1,   55.1,   55.1,   55.2,   55.1,   55.1,   55.1,   55.3,   55.2,   55.3,   55.0,   55.3,   55.3,  999.0,  999.0,   55.4,  999.0,  999.0,  999.0,  999.0,  999.0,  999.0,  999.0,  999.0,  999.0
2005/10/17 19:30,  999.0,  999.0,   -1.4,   -0.6,   -0.6,    0.0,    0.2,    1.3,  999.0,    1.9,    2.4,    4.9,    6.4,    6.3,    6.0,    7.2,  999.0,    9.6,   10.1,    8.9,    9.1,    9.3,   10.0,   10.1,   10.6,   11.8,   13.6,   14.4,   14.5,  999.0,  999.0,  999.0,  999.0,  999.0,  999.0,  999.0,  999.0,  999.0,  999.0,   55.0,   55.1,   55.1,   55.1,   55.1,   55.1,   55.2,   55.1,   55.1,   55.2,   55.2,   55.3,   55.4,  999.0,  999.0,  999.0,  999.0,  999.0,  999.0,  999.0,  999.0,  999.0,  999.0,  999.0
2005/10/17 19:40,  999.0,   -1.6,   -2.1,   -0.8,    0.3,   -1.9,   -0.6,    1.0,    1.1,    0.6,  999.0,    2.6,    6.2,    6.5,    6.6,    6.7,    8.1,    9.7,    9.8,    9.0,    9.0,    9.5,   10.4,   10.4,   11.0,   13.0,   14.9,   16.3,   15.9,   17.3,   17.1,   17.4,   16.7,   16.5,   16.3,  999.0,   16.0,   15.8,  999.0,  999.0,  999.0,   55.2,   55.2,   55.1,   55.2,   55.2,   55.1,   55.1,   55.2,   54.9,   55.4,   55.5,   55.3,  999.0,  999.0,  999.0,  999.0,  999.0,  999.0,  999.0,  999.0,  999.0,  999.0
2005/10/17 19:50,  999.0,   -0.8,   -1.2,   -0.4,   -0.7,   -0.6,    1.1,    0.7,    1.3,    1.9,  999.0,  999.0,    6.5,    6.5,    6.7,    7.0,    9.5,    9.9,   10.1,    9.1,    9.3,   10.1,   11.3,   11.3,   11.0,   11.9,   13.3,   14.4,   14.8,   15.3,   15.4,   15.3,   16.5,   15.7,   15.9,   15.8,   16.4,   16.7,   16.0,  999.0,  999.0,  999.0,  999.0,  999.0,  999.0,  999.0,   55.3,   55.2,   55.2,   55.2,   55.3,   55.3,   55.3,  999.0,  999.0,  999.0,  999.0,  999.0,  999.0,  999.0,  999.0,  999.0,  999.0
2005/10/17 20:00,  999.0,    0.2,   -1.5,   -1.6,   -0.7,   -0.2,   -0.1,    1.0,    0.7,    1.4,  999.0,    1.5,    5.7,    6.3,    6.4,    6.8,    9.1,  999.0,    9.5,    8.6,    8.4,   10.2,    9.9,  999.0,  999.0,  999.0,  999.0,   13.4,   14.3,   15.5,   16.2,   15.7,  999.0,  999.0,  999.0,   16.3,  999.0,   15.9,   16.3,  999.0,  999.0,  999.0,  999.0,  999.0,  999.0,  999.0,  999.0,   54.9,   55.2,  999.0,   55.1,   55.5,   55.3,  999.0,  999.0,  999.0,  999.0,  999.0,  999.0,  999.0,  999.0,  999.0,  999.0
2005/10/17 20:10,  999.0,   -0.4,   -0.9,   -1.4,   -0.4,   -0.4,    0.5,    0.1,    0.9,    1.6,  999.0,    2.1,    5.6,    5.8,    6.5,  999.0,    8.5,    9.2,    9.1,  999.0,    9.3,  999.0,  999.0,  999.0,  999.0,  999.0,  999.0,  999.0,  999.0,  999.0,  999.0,  999.0,  999.0,  999.0,  999.0,  999.0,  999.0,  999.0,   55.1,   45.3,   55.0,   48.8,   48.9,   50.0,   55.1,   54.9,   55.1,   55.1,   55.2,   55.1,   55.2,   55.3,   55.3,   55.3,  999.0,  999.0,   55.2,  999.0,  999.0,  999.0,  999.0,  999.0,  999.0
2005/10/17 20:20,  999.0,    0.1,   -0.8,   -0.9,   -0.7,   -0.8,   -0.3,    0.4,    0.4,    1.4,  999.0,  999.0,    5.5,    5.4,    5.8,    6.7,  999.0,    9.2,    8.8,    9.4,  999.0,  999.0,  999.0,  999.0,  999.0,  999.0,  999.0,  999.0,  999.0,  999.0,   55.0,   55.1,   55.1,   55.1,   55.2,   55.1,   55.1,   55.2,   55.1,   55.1,   55.2,   55.2,   55.3,   55.2,   55.3,   55.4,   55.3,   55.3,   55.3,  999.0,   54.8,  999.0,  999.0,  999.0,  999.0,  999.0,  999.0,  999.0,  999.0,  999.0,  999.0,  999.0,  999.0
2005/10/17 20:30,  999.0,   -0.5,   -1.4,   -0.6,   -0.7,    0.1,    0.7,    0.4,    0.5,    1.3,    1.7,    4.1,    5.0,    5.0,    6.1,    6.0,    8.4,    9.0,    8.4,    9.1,    8.4,    8.2,  999.0,  999.0,  999.0,  999.0,  999.0,  999.0,  999.0,   55.0,   55.1,   55.0,   55.0,   55.1,   55.0,   55.0,   55.1,   55.0,   55.1,   55.1,   55.1,   55.1,   55.1,   55.2,   55.2,   55.2,   55.2,   55.1,   55.1,   55.4,   55.1,   55.2,  999.0,   55.4,   55.3,  999.0,  999.0,  999.0,  999.0,  999.0,  999.0,  999.0,  999.0
2005/10/17 20:40,  999.0,   -0.4,   -0.8,   -0.4,   -0.3,    0.1,    0.9,    0.4,    0.5,    1.3,    2.0,    4.2,    4.9,    4.8,    5.5,    6.0,    8.0,    8.0,    7.5,    7.8,    7.4,    7.8,    8.3,    8.7,  999.0,  999.0,  999.0,  999.0,  999.0,  999.0,  999.0,   55.1,   55.1,   55.0,   55.1,   55.1,   55.1,   55.1,   55.1,   55.1,   55.1,   55.1,   55.2,   55.2,   55.2,   55.1,   55.1,   55.2,   55.2,   55.3,   55.3,   55.3,  999.0,  999.0,  999.0,  999.0,  999.0,  999.0,  999.0,  999.0,  999.0,  999.0,  999.0
2005/10/17 20:50,  999.0,    0.4,   -0.1,   -0.6,    0.2,   -0.1,    0.9,    0.4,  999.0,  999.0,    2.2,    4.8,    5.4,  999.0,    5.6,    7.3,  999.0,    7.0,    8.2,    7.3,    7.7,    8.4,    8.6,    9.5,  999.0,  999.0,  999.0,  999.0,  999.0,  999.0,  999.0,  999.0,  999.0,  999.0,   55.1,   55.0,   55.1,   55.1,   55.1,   55.1,   55.3,   55.1,   55.2,   55.2,   55.2,   55.3,   55.3,   55.1,   55.3,   55.3,   55.3,   55.3,   55.3,  999.0,   55.6,   55.6,  999.0,  999.0,   55.0,  999.0,  999.0,  999.0,  999.0
2005/10/17 21:00,  999.0,   -0.4,   -0.1,   -0.6,   -0.5,    0.0,    1.8,    1.3,    0.5,    1.6,    2.3,    4.5,    4.8,    5.9,    5.6,    7.0,  999.0,    7.3,    8.3,    6.8,  999.0,  999.0,  999.0,  999.0,  999.0,  999.0,  999.0,  999.0,  999.0,  999.0,  999.0,  999.0,  999.0,  999.0,  999.0,   55.0,   55.0,   55.1,   55.0,   55.1,   55.1,   55.1,   54.9,   55.2,   55.0,   55.2,   55.1,   55.1,   55.3,   55.2,   55.3,   55.4,   55.2,   55.1,  999.0,  999.0,  999.0,  999.0,  999.0,  999.0,  999.0,  999.0,  999.0
2005/10/17 21:10,  999.0,    0.6,   -0.4,    0.1,    0.7,    1.2,    1.4,    1.7,    0.8,    2.1,    2.6,    4.6,    5.3,    5.4,  999.0,    6.6,  999.0,    7.0,    7.7,  999.0,  999.0,  999.0,  999.0,  999.0,  999.0,  999.0,  999.0,  999.0,  999.0,   55.0,  999.0,   55.0,   55.1,   55.0,   55.1,   55.1,   55.1,   55.1,   55.1,   55.1,   55.1,   55.1,   55.0,   55.2,   55.3,   55.2,   55.2,   55.3,   55.3,   55.2,   55.4,   55.2,   55.2,   55.1,  999.0,  999.0,  999.0,  999.0,  999.0,  999.0,  999.0,  999.0,  999.0
2005/10/17 21:20,  999.0,   -0.4,   -1.3,    0.1,    0.0,    0.4,    0.9,  999.0,  999.0,    2.0,    3.1,    4.6,  999.0,  999.0,    5.3,  999.0,  999.0,  999.0,    8.0,  999.0,  999.0,  999.0,  999.0,  999.0,  999.0,  999.0,  999.0,  999.0,  999.0,  999.0,   55.1,   55.1,   55.1,   55.1,   55.1,   55.1,   55.1,   55.1,   55.1,   55.2,   55.1,   55.1,   55.1,   55.2,   55.2,   55.2,   55.2,   55.3,   54.9,   55.0,   55.2,   55.5,  999.0,  999.0,  999.0,  999.0,   56.0,  999.0,  999.0,  999.0,  999.0,  999.0,  999.0
2005/10/17 21:30,  999.0,   -0.5,   -0.9,   -0.3,   -0.1,    0.8,    1.2,    0.9,  999.0,    2.4,    3.3,    4.7,  999.0,  999.0,    5.0,    5.8,  999.0,    7.1,    6.9,  999.0,  999.0,  999.0,  999.0,  999.0,  999.0,  999.0,  999.0,  999.0,   55.1,   55.0,   55.1,   55.0,   55.0,   55.0,   55.1,   55.1,   55.1,   55.1,   55.1,   55.1,   55.2,   55.2,   55.1,   55.2,   55.0,   55.1,   55.2,   55.1,   55.4,   55.3,  999.0,   55.0,  999.0,  999.0,  999.0,  999.0,  999.0,  999.0,  999.0,  999.0,  999.0,  999.0,  999.0
2005/10/17 21:40,  999.0,    0.0,   -0.6,    0.1,    0.6,    0.2,    1.1,    0.6,    1.0,    2.0,    3.5,    4.1,    4.5,  999.0,  999.0,    5.9,    6.9,    7.3,    7.2,  999.0,  999.0,  999.0,  999.0,  999.0,  999.0,  999.0,  999.0,   55.1,   55.1,   55.0,   55.0,   55.0,   55.1,   55.0,   55.1,   55.0,   55.0,   55.1,   55.1,   55.1,   55.1,   55.1,   55.1,   55.1,   55.1,   55.3,   55.1,   55.2,   54.9,   55.2,   55.3,   55.4,   55.4,   55.3,  999.0,  999.0,  999.0,  999.0,  999.0,  999.0,  999.0,  999.0,  999.0
2005/10/17 21:50,  999.0,   -0.1,   -0.4,   -0.0,    0.1,    0.4,    1.2,    0.4,    0.5,    2.4,    3.2,    3.7,    3.9,  999.0,  999.0,    6.1,  999.0,    7.4,    8.6,  999.0,  999.0,  999.0,  999.0,  999.0,  999.0,  999.0,  999.0,  999.0,  999.0,  999.0,  999.0,  999.0,  999.0,  999.0,   55.0,   55.0,   55.1,   55.1,   55.1,   55.1,   55.1,   55.1,   55.2,   55.2,   55.1,   55.2,   55.2,   55.3,   55.3,   55.0,   55.3,   55.3,  999.0,   55.4,  999.0,  999.0,  999.0,  999.0,  999.0,  999.0,  999.0,  999.0,  999.0
2005/10/17 22:00,  999.0,    0.1,   -0.2,    0.2,    0.2,    0.1,    0.8,    0.4,  999.0,    2.3,    2.8,    3.2,    3.0,  999.0,  999.0,    6.0,  999.0,    7.3,    8.0,    6.7,  999.0,  999.0,  999.0,  999.0,  999.0,  999.0,  999.0,   12.4,   11.6,   13.0,  999.0,  999.0,  999.0,  999.0,  999.0,  999.0,  999.0,  999.0,  999.0,  999.0,  999.0,  999.0,  999.0,   55.0,   55.1,   55.2,   55.1,   55.2,   55.1,   55.1,   55.1,   55.2,   55.4,   55.1,   55.7,  999.0,  999.0,   55.1,  999.0,  999.0,  999.0,  999.0,  999.0
2005/10/17 22:10,  999.0,   -0.6,   -1.0,    0.0,   -0.4,    0.1,  999.0,   -2.5,   -2.4,    2.3,    2.7,    3.0,    2.8,  999.0,    5.2,  999.0,    6.1,    7.3,    8.3,    7.1,    7.6,  999.0,  999.0,  999.0,   10.1,   11.2,   12.4,   13.0,  999.0,  999.0,  999.0,   16.9,   18.7,   17.6,   15.9,   14.5,   14.0,   13.8,   13.7,   14.3,  999.0,   14.8,   18.4,  999.0,  999.0,  999.0,  999.0,   55.3,   55.4,   55.5,   55.2,   55.1,  999.0,   55.5,   54.9,  999.0,  999.0,  999.0,  999.0,  999.0,  999.0,  999.0,  999.0
2005/10/17 22:20,  999.0,   -0.6,   -0.8,    0.3,   -0.6,    0.3,  999.0,  999.0,  999.0,    2.1,    2.7,    2.8,    3.0,  999.0,    5.4,  999.0,    7.0,    7.9,    8.4,    6.8,  999.0,  999.0,   10.6,   10.4,   10.3,   11.7,   12.4,   12.5,   12.2,   14.0,   14.6,   17.6,   18.3,   18.3,   17.1,   14.9,   13.8,   13.4,   12.6,   13.4,   13.7,   15.2,  999.0,  999.0,  999.0,  999.0,  999.0,  999.0,  999.0,   55.2,  999.0,   55.3,  999.0,   55.5,  999.0,  999.0,  999.0,  999.0,  999.0,  999.0,  999.0,  999.0,  999.0
2005/10/17 22:30,  999.0,    0.0,   -0.8,    0.1,   -0.6,    0.5,  999.0,  999.0,  999.0,  999.0,    2.8,    2.1,    2.6,  999.0,  999.0,    5.4,  999.0,    7.4,    8.1,    6.8,    7.5,  999.0,  999.0,   10.0,   10.9,   11.3,   11.1,   12.0,   11.2,  999.0,  999.0,  999.0,  999.0,  999.0,  999.0,  999.0,  999.0,  999.0,  999.0,   22.8,  999.0,   25.3,  999.0,  999.0,  999.0,  999.0,  999.0,  999.0,   55.3,   55.3,   55.3,   55.3,   55.3,  999.0,   55.5,  999.0,  999.0,  999.0,  999.0,  999.0,  999.0,  999.0,  999.0
2005/10/17 22:40,  999.0,   -0.2,   -0.4,   -0.4,    0.2,    0.1,  999.0,  999.0,    1.7,    2.1,    2.4,    2.0,    2.3,  999.0,  999.0,    5.2,    6.0,    7.6,    8.1,    6.8,    7.1,  999.0,   10.3,   10.1,   10.9,   11.7,   12.1,   12.9,   13.7,   13.8,   15.6,  999.0,  999.0,  999.0,  999.0,  999.0,  999.0,  999.0,   55.2,   55.1,   55.1,   55.1,   52.2,   55.2,   55.1,   55.3,   55.3,   55.2,   55.2,   55.2,   55.4,   55.1,   55.3,   55.5,   55.4,  999.0,  999.0,  999.0,  999.0,  999.0,  999.0,  999.0,  999.0
2005/10/17 22:50,  999.0,    0.3,    0.4,    0.8,   -0.1,    0.5,  999.0,  999.0,    1.0,    1.9,    1.7,    1.8,    2.3,  999.0,  999.0,    5.3,    6.6,    8.1,    8.5,    7.5,    7.1,  999.0,    9.9,    9.4,    9.8,   10.6,  999.0,   12.4,   12.8,   14.2,   15.8,  999.0,  999.0,  999.0,  999.0,  999.0,  999.0,  999.0,  999.0,   55.2,   55.1,   55.1,   55.2,   55.1,   55.3,   55.1,   55.2,   55.0,   55.3,   55.1,  999.0,   55.3,   55.0,  999.0,  999.0,   54.9,  999.0,  999.0,  999.0,  999.0,  999.0,  999.0,  999.0
2005/10/17 23:00,  999.0,    0.1,    0.6,    0.2,   -0.0,    0.8,  999.0,  999.0,  999.0,    1.7,    1.8,    1.7,    2.3,  999.0,  999.0,    5.3,    7.3,    8.1,    8.3,    7.1,    7.3,  999.0,  999.0,  999.0,   10.5,   10.9,  999.0,   13.6,   13.9,  999.0,   15.0,  999.0,  999.0,  999.0,  999.0,  999.0,   55.0,   55.1,   55.1,   55.1,   55.1,   55.2,   55.1,   55.2,   55.1,   55.1,   55.2,   55.3,   55.3,   55.1,   55.2,   55.4,   55.3,   55.5,   54.5,  999.0,  999.0,  999.0,  999.0,  999.0,  999.0,  999.0,  999.0
2005/10/17 23:10,  999.0,    0.4,    0.3,    0.7,    1.3,    1.0,    1.5,  999.0,    1.6,    1.7,    1.2,    1.5,  999.0,  999.0,  999.0,    5.1,    7.0,    7.6,    7.4,    7.2,    7.7,  999.0,  999.0,  999.0,  999.0,   11.4,  999.0,  999.0,  999.0,  999.0,  999.0,  999.0,  999.0,  999.0,  999.0,   55.2,   55.2,   55.2,   55.1,   55.2,   55.2,   55.2,   55.1,   55.2,   55.3,   55.2,   55.3,   55.2,   55.1,   55.3,   55.2,   55.4,   55.2,   55.4,  999.0,   55.5,  999.0,  999.0,  999.0,  999.0,  999.0,  999.0,  999.0
2005/10/17 23:20,  999.0,   -0.0,   -0.2,   -0.2,    0.6,    1.2,  999.0,    0.5,    1.2,    1.1,    1.4,    1.4,  999.0,  999.0,    4.1,    4.4,    7.5,    7.7,    7.7,    8.2,    7.3,  999.0,  999.0,   10.1,    9.9,  999.0,  999.0,  999.0,  999.0,  999.0,  999.0,  999.0,  999.0,  999.0,  999.0,  999.0,   55.2,   55.1,   55.1,   55.2,   55.1,   55.2,   55.2,   55.2,   55.2,   55.2,   55.1,   55.2,   55.2,   55.4,  999.0,   55.4,  999.0,  999.0,  999.0,  999.0,  999.0,  999.0,  999.0,  999.0,  999.0,  999.0,  999.0
2005/10/17 23:30,  999.0,    0.2,   -0.0,   -0.9,    0.3,    1.1,  999.0,  999.0,    2.5,    2.4,    2.1,    2.2,  999.0,  999.0,    3.9,    5.6,    6.7,    7.0,    7.5,    7.6,    6.8,    7.4,  999.0,    9.8,   10.3,   10.5,   10.6,   11.2,   12.2,   13.1,   13.9,  999.0,  999.0,  999.0,  999.0,  999.0,   55.1,   55.0,   55.1,   55.2,   55.1,   55.2,   55.3,   55.1,   55.2,   55.3,   55.1,   55.4,   55.4,   55.5,   55.2,   55.3,   55.5,   55.2,  999.0,  999.0,  999.0,  999.0,  999.0,  999.0,  999.0,  999.0,  999.0
2005/10/17 23:40,  999.0,   -0.0,    0.1,   -0.4,    0.6,    1.7,    1.7,  999.0,  999.0,  999.0,    2.2,    2.0,  999.0,  999.0,    4.3,    6.3,    7.2,    7.6,    8.0,    8.4,    7.4,    7.4,    8.8,   10.0,   10.3,   10.8,   10.7,   11.6,   13.1,   13.9,   15.4,  999.0,  999.0,  999.0,  999.0,  999.0,  999.0,  999.0,  999.0,   55.1,   55.1,   55.1,   55.2,   55.2,   55.2,   55.2,   55.1,   55.3,   55.4,   55.3,  999.0,   55.5,   55.4,   55.2,  999.0,   55.1,   55.2,  999.0,  999.0,  999.0,  999.0,  999.0,  999.0
2005/10/17 23:50,  999.0,    0.7,    0.2,    0.9,   -0.1,    0.9,  999.0,  999.0,    1.5,    2.2,    2.4,    2.1,    1.8,  999.0,    4.0,    6.1,    7.0,    7.2,    7.8,    8.0,    8.7,    8.0,    8.5,    9.5,   10.0,   10.6,   10.6,   11.9,   12.8,   13.4,   14.8,  999.0,  999.0,  999.0,  999.0,  999.0,  999.0,   55.0,   55.2,   55.2,   55.1,   55.1,   55.2,   55.1,   55.3,   55.3,   55.3,   55.4,   55.2,   55.5,   55.4,   55.1,  999.0,   55.4,  999.0,  999.0,   55.1,   55.5,  999.0,  999.0,  999.0,  999.0,  999.0
